Time,TemperatureF,DewpointF,PressureIn,WindDirection,WindDirectionDegrees,WindSpeedMPH,WindSpeedGustMPH,Humidity,HourlyPrecipIn,Conditions,Clouds,dailyrainin,SoftwareType,DateUTC
2013-03-30 00:00:00,42.6,19.4,30.09,SW,216,2.7,3.1,39,0.00,,---,0.00,VWS V14.01,2013-03-30 06:00:00,
2013-03-30 00:04:00,42.6,19.4,30.09,SSW,213,0.0,3.1,39,0.00,,---,0.00,VWS V14.01,2013-03-30 06:04:00,
2013-03-30 00:05:00,42.6,19.4,30.09,SSW,213,0.0,3.1,39,0.00,,---,0.00,VWS V14.01,2013-03-30 06:05:00,
2013-03-30 00:09:00,42.4,19.2,30.09,SSW,213,0.0,3.1,39,0.00,,---,0.00,VWS V14.01,2013-03-30 06:09:00,
2013-03-30 00:10:00,42.4,19.2,30.09,SSW,213,0.0,3.1,39,0.00,,---,0.00,VWS V14.01,2013-03-30 06:10:00,
2013-03-30 00:14:00,42.3,19.1,30.09,SSW,212,2.7,3.1,39,0.00,,---,0.00,VWS V14.01,2013-03-30 06:14:00,
2013-03-30 00:15:00,42.3,19.1,30.11,SSW,212,3.1,3.1,39,0.00,,---,0.00,VWS V14.01,2013-03-30 06:15:00,
2013-03-30 00:19:00,42.3,19.1,30.11,SSW,212,0.0,3.1,39,0.00,,---,0.00,VWS V14.01,2013-03-30 06:19:00,
2013-03-30 00:20:00,42.3,19.1,30.11,NNW,334,2.7,3.1,39,0.00,,---,0.00,VWS V14.01,2013-03-30 06:20:00,
2013-03-30 00:24:00,42.3,19.1,30.11,WSW,248,2.2,3.1,39,0.00,,---,0.00,VWS V14.01,2013-03-30 06:24:00,
2013-03-30 00:26:00,42.1,18.9,30.11,WSW,256,2.2,3.1,39,0.00,,---,0.00,VWS V14.01,2013-03-30 06:26:00,
2013-03-30 00:29:00,42.1,18.9,30.11,WSW,245,2.7,3.6,39,0.00,,---,0.00,VWS V14.01,2013-03-30 06:29:00,
2013-03-30 00:31:00,42.1,18.9,30.11,SW,227,2.7,3.1,39,0.00,,---,0.00,VWS V14.01,2013-03-30 06:31:00,
2013-03-30 00:34:00,41.9,18.8,30.11,WSW,247,3.1,4.0,39,0.00,,---,0.00,VWS V14.01,2013-03-30 06:34:00,
2013-03-30 00:35:00,41.9,18.8,30.11,WSW,247,2.2,4.0,39,0.00,,---,0.00,VWS V14.01,2013-03-30 06:35:00,
2013-03-30 00:36:00,41.9,18.8,30.11,WSW,247,2.7,4.0,39,0.00,,---,0.00,VWS V14.01,2013-03-30 06:36:00,
2013-03-30 00:40:00,41.7,18.6,30.11,WSW,247,2.7,4.0,39,0.00,,---,0.00,VWS V14.01,2013-03-30 06:40:00,
2013-03-30 00:41:00,41.7,18.6,30.11,WSW,247,2.7,4.0,39,0.00,,---,0.00,VWS V14.01,2013-03-30 06:41:00,
2013-03-30 00:42:00,41.5,18.4,30.11,WSW,247,2.7,4.0,39,0.00,,---,0.00,VWS V14.01,2013-03-30 06:42:00,
2013-03-30 00:45:00,41.4,18.3,30.11,WSW,248,2.7,3.1,39,0.00,,---,0.00,VWS V14.01,2013-03-30 06:45:00,
2013-03-30 00:47:00,41.4,18.3,30.11,WSW,252,2.7,3.6,39,0.00,,---,0.00,VWS V14.01,2013-03-30 06:47:00,
2013-03-30 00:50:00,41.2,18.1,30.11,West,259,2.7,4.0,39,0.00,,---,0.00,VWS V14.01,2013-03-30 06:50:00,
2013-03-30 00:51:00,41.2,18.1,30.11,West,259,3.6,4.0,39,0.00,,---,0.00,VWS V14.01,2013-03-30 06:51:00,
2013-03-30 00:52:00,41.2,18.1,30.11,WSW,245,3.6,4.0,39,0.00,,---,0.00,VWS V14.01,2013-03-30 06:52:00,
2013-03-30 00:56:00,41.2,18.1,30.11,SW,229,3.1,4.0,39,0.00,,---,0.00,VWS V14.01,2013-03-30 06:56:00,
2013-03-30 00:57:00,41.2,18.1,30.11,SW,234,2.7,4.0,39,0.00,,---,0.00,VWS V14.01,2013-03-30 06:57:00,
2013-03-30 00:58:00,41.2,18.1,30.11,WSW,239,2.7,4.0,39,0.00,,---,0.00,VWS V14.01,2013-03-30 06:58:00,
2013-03-30 01:01:00,41.0,18.0,30.11,WSW,239,2.7,2.7,39,0.00,,---,0.00,VWS V14.01,2013-03-30 07:01:00,
2013-03-30 01:02:00,41.0,18.0,30.11,WSW,239,2.7,2.7,39,0.00,,---,0.00,VWS V14.01,2013-03-30 07:02:00,
2013-03-30 01:03:00,41.0,18.0,30.11,WSW,243,2.2,3.6,39,0.00,,---,0.00,VWS V14.01,2013-03-30 07:03:00,
2013-03-30 01:07:00,41.0,18.0,30.11,WSW,247,0.0,3.6,39,0.00,,---,0.00,VWS V14.01,2013-03-30 07:07:00,
2013-03-30 01:08:00,41.0,18.0,30.11,WSW,247,3.1,3.6,39,0.00,,---,0.00,VWS V14.01,2013-03-30 07:08:00,
2013-03-30 01:12:00,40.8,18.4,30.11,WSW,247,2.2,3.6,40,0.00,,---,0.00,VWS V14.01,2013-03-30 07:12:00,
2013-03-30 01:13:00,40.8,18.4,30.11,WSW,248,0.0,3.6,40,0.00,,---,0.00,VWS V14.01,2013-03-30 07:13:00,
2013-03-30 01:14:00,40.6,18.2,30.11,WSW,252,2.2,4.0,40,0.00,,---,0.00,VWS V14.01,2013-03-30 07:14:00,
2013-03-30 01:17:00,40.6,18.2,30.11,SW,225,3.1,4.0,40,0.00,,---,0.00,VWS V14.01,2013-03-30 07:17:00,
2013-03-30 01:18:00,40.6,18.2,30.11,WSW,245,3.1,4.0,40,0.00,,---,0.00,VWS V14.01,2013-03-30 07:18:00,
2013-03-30 01:19:00,40.6,18.2,30.11,WSW,245,2.7,4.0,40,0.00,,---,0.00,VWS V14.01,2013-03-30 07:19:00,
2013-03-30 01:22:00,40.6,18.2,30.11,WSW,243,2.2,4.0,40,0.00,,---,0.00,VWS V14.01,2013-03-30 07:22:00,
2013-03-30 01:23:00,40.6,18.2,30.11,WSW,243,2.7,4.0,40,0.00,,---,0.00,VWS V14.01,2013-03-30 07:23:00,
2013-03-30 01:24:00,40.6,18.2,30.11,WSW,238,2.7,4.0,40,0.00,,---,0.00,VWS V14.01,2013-03-30 07:24:00,
2013-03-30 01:27:00,40.5,18.1,30.11,WNW,284,3.1,4.0,40,0.00,,---,0.00,VWS V14.01,2013-03-30 07:27:00,
2013-03-30 01:28:00,40.5,18.1,30.11,WSW,249,3.1,4.0,40,0.00,,---,0.00,VWS V14.01,2013-03-30 07:28:00,
2013-03-30 01:29:00,40.5,18.1,30.11,West,261,2.2,4.0,40,0.00,,---,0.00,VWS V14.01,2013-03-30 07:29:00,
2013-03-30 01:33:00,40.5,18.1,30.11,West,260,0.0,2.7,40,0.00,,---,0.00,VWS V14.01,2013-03-30 07:33:00,
2013-03-30 01:34:00,40.5,18.1,30.11,West,259,2.7,2.7,40,0.00,,---,0.00,VWS V14.01,2013-03-30 07:34:00,
2013-03-30 01:38:00,40.5,18.1,30.11,WSW,243,2.7,4.0,40,0.00,,---,0.00,VWS V14.01,2013-03-30 07:38:00,
2013-03-30 01:39:00,40.5,18.1,30.11,WSW,238,2.7,4.0,40,0.00,,---,0.00,VWS V14.01,2013-03-30 07:39:00,
2013-03-30 01:43:00,40.5,18.1,30.11,WSW,242,2.2,4.0,40,0.00,,---,0.00,VWS V14.01,2013-03-30 07:43:00,
2013-03-30 01:44:00,40.5,18.1,30.11,WSW,238,2.7,4.0,40,0.00,,---,0.00,VWS V14.01,2013-03-30 07:44:00,
2013-03-30 01:49:00,40.5,18.1,30.11,SW,228,3.1,4.0,40,0.00,,---,0.00,VWS V14.01,2013-03-30 07:49:00,
2013-03-30 01:50:00,40.5,18.1,30.11,SW,216,3.1,4.0,40,0.00,,---,0.00,VWS V14.01,2013-03-30 07:50:00,
2013-03-30 01:54:00,40.5,18.1,30.11,SSW,211,2.7,4.0,40,0.00,,---,0.00,VWS V14.01,2013-03-30 07:54:00,
2013-03-30 01:55:00,40.3,17.9,30.11,SSW,211,2.7,4.0,40,0.00,,---,0.00,VWS V14.01,2013-03-30 07:55:00,
2013-03-30 01:59:00,40.3,18.5,30.11,WSW,239,2.7,4.0,41,0.00,,---,0.00,VWS V14.01,2013-03-30 07:59:00,
2013-03-30 02:00:00,40.3,18.5,30.11,SSW,192,4.0,4.0,41,0.00,,---,0.00,VWS V14.01,2013-03-30 08:00:00,
2013-03-30 02:04:00,40.3,18.5,30.11,SSW,207,2.2,4.0,41,0.00,,---,0.00,VWS V14.01,2013-03-30 08:04:00,
2013-03-30 02:05:00,40.3,18.5,30.11,SSW,207,2.7,4.0,41,0.00,,---,0.00,VWS V14.01,2013-03-30 08:05:00,
2013-03-30 02:09:00,40.3,18.5,30.11,SSW,211,4.0,4.0,41,0.00,,---,0.00,VWS V14.01,2013-03-30 08:09:00,
2013-03-30 02:10:00,40.3,18.5,30.11,SSW,212,3.1,4.0,41,0.00,,---,0.00,VWS V14.01,2013-03-30 08:10:00,
2013-03-30 02:15:00,40.3,18.5,30.11,SSW,211,0.0,5.4,41,0.00,,---,0.00,VWS V14.01,2013-03-30 08:15:00,
2013-03-30 02:20:00,40.3,18.5,30.11,SSW,210,2.7,5.8,41,0.00,,---,0.00,VWS V14.01,2013-03-30 08:20:00,
2013-03-30 02:21:00,40.3,18.5,30.11,SSW,210,3.1,5.8,41,0.00,,---,0.00,VWS V14.01,2013-03-30 08:21:00,
2013-03-30 02:25:00,40.3,18.5,30.11,SSW,203,4.9,5.8,41,0.00,,---,0.00,VWS V14.01,2013-03-30 08:25:00,
2013-03-30 02:26:00,40.3,18.5,30.11,SW,216,3.6,5.8,41,0.00,,---,0.00,VWS V14.01,2013-03-30 08:26:00,
2013-03-30 02:30:00,40.3,18.5,30.11,SW,223,4.0,4.0,41,0.00,,---,0.00,VWS V14.01,2013-03-30 08:30:00,
2013-03-30 02:31:00,40.3,18.5,30.11,SSW,199,3.1,4.0,41,0.00,,---,0.00,VWS V14.01,2013-03-30 08:31:00,
2013-03-30 02:35:00,40.5,18.6,30.11,SW,222,3.1,5.8,41,0.00,,---,0.00,VWS V14.01,2013-03-30 08:35:00,
2013-03-30 02:36:00,40.5,18.6,30.11,SW,225,3.6,5.8,41,0.00,,---,0.00,VWS V14.01,2013-03-30 08:36:00,
2013-03-30 02:37:00,40.5,18.6,30.11,WSW,250,4.0,5.8,41,0.00,,---,0.00,VWS V14.01,2013-03-30 08:37:00,
2013-03-30 02:40:00,40.3,19.0,30.11,WSW,252,2.7,5.8,42,0.00,,---,0.00,VWS V14.01,2013-03-30 08:40:00,
2013-03-30 02:41:00,40.5,19.2,30.11,SW,215,3.1,5.8,42,0.00,,---,0.00,VWS V14.01,2013-03-30 08:41:00,
2013-03-30 02:42:00,40.5,19.2,30.11,SW,220,2.7,5.8,42,0.00,,---,0.00,VWS V14.01,2013-03-30 08:42:00,
2013-03-30 02:45:00,40.3,18.5,30.11,SW,215,2.7,3.1,41,0.00,,---,0.00,VWS V14.01,2013-03-30 08:45:00,
2013-03-30 02:47:00,40.3,18.5,30.11,SSW,192,3.6,3.6,41,0.00,,---,0.00,VWS V14.01,2013-03-30 08:47:00,
2013-03-30 02:51:00,40.3,18.5,30.11,SSW,192,0.0,3.6,41,0.00,,---,0.00,VWS V14.01,2013-03-30 08:51:00,
2013-03-30 02:52:00,40.1,18.3,30.11,SSW,192,0.0,3.6,41,0.00,,---,0.00,VWS V14.01,2013-03-30 08:52:00,
2013-03-30 02:56:00,39.9,18.7,30.11,SSW,205,3.6,4.9,42,0.00,,---,0.00,VWS V14.01,2013-03-30 08:56:00,
2013-03-30 02:57:00,39.9,18.7,30.11,SSW,204,2.7,4.9,42,0.00,,---,0.00,VWS V14.01,2013-03-30 08:57:00,
2013-03-30 03:01:00,39.9,18.7,30.09,SSW,204,0.0,0.0,42,0.00,,---,0.00,VWS V14.01,2013-03-30 09:01:00,
2013-03-30 03:02:00,39.9,18.7,30.09,SSW,204,0.0,0.0,42,0.00,,---,0.00,VWS V14.01,2013-03-30 09:02:00,
2013-03-30 03:03:00,39.9,18.7,30.09,SSW,204,0.0,0.0,42,0.00,,---,0.00,VWS V14.01,2013-03-30 09:03:00,
2013-03-30 03:07:00,39.7,18.5,30.09,SSW,204,0.0,0.0,42,0.00,,---,0.00,VWS V14.01,2013-03-30 09:07:00,
2013-03-30 03:08:00,39.7,18.5,30.09,SSW,204,0.0,0.0,42,0.00,,---,0.00,VWS V14.01,2013-03-30 09:08:00,
2013-03-30 03:12:00,39.2,18.6,30.09,SSW,204,0.0,0.0,43,0.00,,---,0.00,VWS V14.01,2013-03-30 09:12:00,
2013-03-30 03:13:00,39.2,18.6,30.09,SSW,204,0.0,0.0,43,0.00,,---,0.00,VWS V14.01,2013-03-30 09:13:00,
2013-03-30 03:17:00,39.0,19.0,30.11,SSW,204,0.0,0.0,44,0.00,,---,0.00,VWS V14.01,2013-03-30 09:17:00,
2013-03-30 03:18:00,38.8,18.8,30.11,SSW,204,0.0,0.0,44,0.00,,---,0.00,VWS V14.01,2013-03-30 09:18:00,
2013-03-30 03:19:00,38.8,18.8,30.11,SSW,204,0.0,0.0,44,0.00,,---,0.00,VWS V14.01,2013-03-30 09:19:00,
2013-03-30 03:22:00,38.7,19.2,30.11,SSW,204,2.2,2.7,45,0.00,,---,0.00,VWS V14.01,2013-03-30 09:22:00,
2013-03-30 03:23:00,38.7,19.2,30.11,SSW,204,0.0,2.7,45,0.00,,---,0.00,VWS V14.01,2013-03-30 09:23:00,
2013-03-30 03:24:00,38.8,19.3,30.11,SSW,204,2.2,2.7,45,0.00,,---,0.00,VWS V14.01,2013-03-30 09:24:00,
2013-03-30 03:27:00,38.8,19.3,30.11,SSW,204,2.7,3.1,45,0.00,,---,0.00,VWS V14.01,2013-03-30 09:27:00,
2013-03-30 03:28:00,38.8,19.3,30.11,SSW,204,2.7,3.6,45,0.00,,---,0.00,VWS V14.01,2013-03-30 09:28:00,
2013-03-30 03:29:00,38.8,19.3,30.11,SSW,193,3.6,3.6,45,0.00,,---,0.00,VWS V14.01,2013-03-30 09:29:00,
2013-03-30 03:33:00,39.0,19.5,30.09,SSW,194,0.0,3.6,45,0.00,,---,0.00,VWS V14.01,2013-03-30 09:33:00,
2013-03-30 03:34:00,39.0,19.5,30.09,SSW,194,0.0,3.6,45,0.00,,---,0.00,VWS V14.01,2013-03-30 09:34:00,
2013-03-30 03:38:00,38.8,18.8,30.09,SSW,194,0.0,3.6,44,0.00,,---,0.00,VWS V14.01,2013-03-30 09:38:00,
2013-03-30 03:39:00,38.8,18.8,30.09,SSW,194,0.0,3.6,44,0.00,,---,0.00,VWS V14.01,2013-03-30 09:39:00,
2013-03-30 03:43:00,38.7,18.6,30.09,SSW,194,0.0,3.6,44,0.00,,---,0.00,VWS V14.01,2013-03-30 09:43:00,
2013-03-30 03:44:00,38.7,18.6,30.09,SSW,194,0.0,3.6,44,0.00,,---,0.00,VWS V14.01,2013-03-30 09:44:00,
2013-03-30 03:45:00,38.5,18.5,30.11,SSW,194,0.0,3.6,44,0.00,,---,0.00,VWS V14.01,2013-03-30 09:45:00,
2013-03-30 03:48:00,38.5,19.0,30.11,SSW,195,2.7,3.1,45,0.00,,---,0.00,VWS V14.01,2013-03-30 09:48:00,
2013-03-30 03:49:00,38.5,19.0,30.11,SSW,195,2.2,3.1,45,0.00,,---,0.00,VWS V14.01,2013-03-30 09:49:00,
2013-03-30 03:50:00,38.5,19.0,30.11,SSW,194,2.7,3.1,45,0.00,,---,0.00,VWS V14.01,2013-03-30 09:50:00,
2013-03-30 03:54:00,38.3,19.4,30.11,SSW,194,2.2,3.1,46,0.00,,---,0.00,VWS V14.01,2013-03-30 09:54:00,
2013-03-30 03:55:00,38.3,19.4,30.11,SSW,195,2.2,3.1,46,0.00,,---,0.00,VWS V14.01,2013-03-30 09:55:00,
2013-03-30 03:59:00,38.3,19.9,30.11,SSW,211,3.1,4.0,47,0.00,,---,0.00,VWS V14.01,2013-03-30 09:59:00,
2013-03-30 04:00:00,38.3,19.9,30.11,SSW,205,3.6,4.0,47,0.00,,---,0.00,VWS V14.01,2013-03-30 10:00:00,
2013-03-30 04:04:00,38.7,19.7,30.11,SSW,209,2.2,4.0,46,0.00,,---,0.00,VWS V14.01,2013-03-30 10:04:00,
2013-03-30 04:05:00,38.7,19.7,30.11,SSW,209,3.1,4.0,46,0.00,,---,0.00,VWS V14.01,2013-03-30 10:05:00,
2013-03-30 04:09:00,38.8,19.3,30.11,SSW,204,2.2,4.5,45,0.00,,---,0.00,VWS V14.01,2013-03-30 10:09:00,
2013-03-30 04:10:00,38.8,19.3,30.11,SSW,204,2.7,4.5,45,0.00,,---,0.00,VWS V14.01,2013-03-30 10:10:00,
2013-03-30 04:15:00,38.7,19.2,30.11,SSW,204,3.6,4.5,45,0.00,,---,0.00,VWS V14.01,2013-03-30 10:15:00,
2013-03-30 04:16:00,38.7,19.2,30.11,SSW,205,2.7,3.6,45,0.00,,---,0.00,VWS V14.01,2013-03-30 10:16:00,
2013-03-30 04:20:00,38.7,19.2,30.11,SSW,202,3.1,3.6,45,0.00,,---,0.00,VWS V14.01,2013-03-30 10:20:00,
2013-03-30 04:22:00,38.7,19.2,30.11,SSW,202,2.2,3.6,45,0.00,,---,0.00,VWS V14.01,2013-03-30 10:22:00,
2013-03-30 04:25:00,38.7,19.2,30.11,SSW,197,2.2,3.6,45,0.00,,---,0.00,VWS V14.01,2013-03-30 10:25:00,
2013-03-30 04:27:00,38.7,19.2,30.11,SSW,197,0.0,3.6,45,0.00,,---,0.00,VWS V14.01,2013-03-30 10:27:00,
2013-03-30 04:30:00,38.7,19.2,30.09,South,186,2.2,3.6,45,0.00,,---,0.00,VWS V14.01,2013-03-30 10:30:00,
2013-03-30 04:32:00,38.8,18.8,30.09,WSW,246,3.1,3.6,44,0.00,,---,0.00,VWS V14.01,2013-03-30 10:32:00,
2013-03-30 04:35:00,39.2,18.6,30.09,SSW,194,2.2,4.0,43,0.00,,---,0.00,VWS V14.01,2013-03-30 10:35:00,
2013-03-30 04:36:00,39.2,18.6,30.09,SSW,194,2.7,4.0,43,0.00,,---,0.00,VWS V14.01,2013-03-30 10:36:00,
2013-03-30 04:37:00,39.2,18.6,30.09,South,191,2.7,4.0,43,0.00,,---,0.00,VWS V14.01,2013-03-30 10:37:00,
2013-03-30 04:40:00,39.2,18.6,30.09,South,189,2.7,4.0,43,0.00,,---,0.00,VWS V14.01,2013-03-30 10:40:00,
2013-03-30 04:41:00,39.4,18.2,30.09,South,190,2.7,4.0,42,0.00,,---,0.00,VWS V14.01,2013-03-30 10:41:00,
2013-03-30 04:42:00,39.2,18.0,30.09,South,191,2.7,4.0,42,0.00,,---,0.00,VWS V14.01,2013-03-30 10:42:00,
2013-03-30 04:45:00,39.2,18.0,30.09,South,187,4.0,4.0,42,0.00,,---,0.00,VWS V14.01,2013-03-30 10:45:00,
2013-03-30 04:47:00,39.2,18.6,30.09,SSW,194,3.1,5.4,43,0.00,,---,0.00,VWS V14.01,2013-03-30 10:47:00,
2013-03-30 04:50:00,39.2,18.6,30.09,South,190,3.6,5.8,43,0.00,,---,0.00,VWS V14.01,2013-03-30 10:50:00,
2013-03-30 04:52:00,39.2,18.6,30.09,SSW,194,4.0,5.8,43,0.00,,---,0.00,VWS V14.01,2013-03-30 10:52:00,
2013-03-30 04:53:00,39.0,18.4,30.09,SSW,202,4.0,5.8,43,0.00,,---,0.00,VWS V14.01,2013-03-30 10:53:00,
2013-03-30 04:55:00,39.0,18.4,30.09,SSW,203,2.7,5.8,43,0.00,,---,0.00,VWS V14.01,2013-03-30 10:55:00,
2013-03-30 04:56:00,38.8,18.8,30.09,SSW,201,2.2,5.8,44,0.00,,---,0.00,VWS V14.01,2013-03-30 10:56:00,
2013-03-30 04:57:00,38.8,18.8,30.09,SSW,201,2.2,5.8,44,0.00,,---,0.00,VWS V14.01,2013-03-30 10:57:00,
2013-03-30 04:58:00,38.7,18.6,30.09,SSW,201,2.2,5.8,44,0.00,,---,0.00,VWS V14.01,2013-03-30 10:58:00,
2013-03-30 05:00:00,38.5,18.5,30.09,SSW,201,0.0,0.0,44,0.00,,---,0.00,VWS V14.01,2013-03-30 11:00:00,
2013-03-30 05:01:00,38.5,18.5,30.09,SSW,201,2.2,2.2,44,0.00,,---,0.00,VWS V14.01,2013-03-30 11:01:00,
2013-03-30 05:02:00,38.3,18.3,30.09,SSW,201,0.0,2.2,44,0.00,,---,0.00,VWS V14.01,2013-03-30 11:02:00,
2013-03-30 05:03:00,38.1,18.1,30.09,SSW,201,2.7,2.7,44,0.00,,---,0.00,VWS V14.01,2013-03-30 11:03:00,
2013-03-30 05:05:00,38.1,18.7,30.09,SSW,201,3.1,3.1,45,0.00,,---,0.00,VWS V14.01,2013-03-30 11:05:00,
2013-03-30 05:06:00,38.1,18.7,30.09,SSW,201,3.1,3.1,45,0.00,,---,0.00,VWS V14.01,2013-03-30 11:06:00,
2013-03-30 05:08:00,38.1,18.7,30.09,SSW,201,2.2,3.1,45,0.00,,---,0.00,VWS V14.01,2013-03-30 11:08:00,
2013-03-30 05:09:00,38.1,18.7,30.09,SSW,197,4.0,4.0,45,0.00,,---,0.00,VWS V14.01,2013-03-30 11:09:00,
2013-03-30 05:10:00,38.1,18.7,30.09,SSW,196,3.1,4.0,45,0.00,,---,0.00,VWS V14.01,2013-03-30 11:10:00,
2013-03-30 05:11:00,38.1,18.7,30.09,SSW,196,2.7,4.0,45,0.00,,---,0.00,VWS V14.01,2013-03-30 11:11:00,
2013-03-30 05:12:00,38.1,18.7,30.09,SSW,196,3.1,4.0,45,0.00,,---,0.00,VWS V14.01,2013-03-30 11:12:00,
2013-03-30 05:14:00,38.1,18.7,30.09,SSW,196,2.7,4.0,45,0.00,,---,0.00,VWS V14.01,2013-03-30 11:14:00,
2013-03-30 05:15:00,38.1,18.7,30.09,SSW,196,2.7,3.1,45,0.00,,---,0.00,VWS V14.01,2013-03-30 11:15:00,
2013-03-30 05:16:00,38.1,18.7,30.09,SSW,196,2.7,3.1,45,0.00,,---,0.00,VWS V14.01,2013-03-30 11:16:00,
2013-03-30 05:18:00,38.1,18.7,30.09,SSW,196,3.6,4.0,45,0.00,,---,0.00,VWS V14.01,2013-03-30 11:18:00,
2013-03-30 05:19:00,38.1,18.7,30.09,SSW,196,2.7,4.0,45,0.00,,---,0.00,VWS V14.01,2013-03-30 11:19:00,
2013-03-30 05:20:00,38.1,18.7,30.09,SSW,196,3.1,4.0,45,0.00,,---,0.00,VWS V14.01,2013-03-30 11:20:00,
2013-03-30 05:21:00,38.1,18.7,30.09,SSW,196,3.1,4.0,45,0.00,,---,0.00,VWS V14.01,2013-03-30 11:21:00,
2013-03-30 05:23:00,38.1,18.7,30.09,SSW,196,3.1,4.0,45,0.00,,---,0.00,VWS V14.01,2013-03-30 11:23:00,
2013-03-30 05:24:00,38.1,18.7,30.09,SSW,196,2.2,4.0,45,0.00,,---,0.00,VWS V14.01,2013-03-30 11:24:00,
2013-03-30 05:26:00,38.1,18.7,30.09,SSW,196,0.0,4.0,45,0.00,,---,0.00,VWS V14.01,2013-03-30 11:26:00,
2013-03-30 05:28:00,37.9,18.5,30.09,SSW,196,2.7,4.0,45,0.00,,---,0.00,VWS V14.01,2013-03-30 11:28:00,
2013-03-30 05:29:00,37.9,18.5,30.09,SSW,196,0.0,4.0,45,0.00,,---,0.00,VWS V14.01,2013-03-30 11:29:00,
2013-03-30 05:31:00,37.9,18.5,30.09,SSW,196,0.0,2.7,45,0.00,,---,0.00,VWS V14.01,2013-03-30 11:31:00,
2013-03-30 05:32:00,37.9,18.5,30.09,SSW,196,2.2,2.7,45,0.00,,---,0.00,VWS V14.01,2013-03-30 11:32:00,
2013-03-30 05:33:00,37.8,18.3,30.09,SSW,196,0.0,2.7,45,0.00,,---,0.00,VWS V14.01,2013-03-30 11:33:00,
2013-03-30 05:34:00,37.6,18.2,30.09,SSW,196,0.0,2.7,45,0.00,,---,0.00,VWS V14.01,2013-03-30 11:34:00,
2013-03-30 05:36:00,37.4,18.0,30.09,SSW,196,0.0,2.7,45,0.00,,---,0.00,VWS V14.01,2013-03-30 11:36:00,
2013-03-30 05:37:00,37.4,18.0,30.09,SSW,196,0.0,2.7,45,0.00,,---,0.00,VWS V14.01,2013-03-30 11:37:00,
2013-03-30 05:38:00,37.4,18.5,30.09,SSW,196,0.0,2.7,46,0.00,,---,0.00,VWS V14.01,2013-03-30 11:38:00,
2013-03-30 05:39:00,37.2,18.4,30.09,SSW,196,0.0,2.7,46,0.00,,---,0.00,VWS V14.01,2013-03-30 11:39:00,
2013-03-30 05:41:00,37.2,18.4,30.09,SSW,196,0.0,2.7,46,0.00,,---,0.00,VWS V14.01,2013-03-30 11:41:00,
2013-03-30 05:42:00,37.2,18.4,30.09,SSW,196,0.0,2.7,46,0.00,,---,0.00,VWS V14.01,2013-03-30 11:42:00,
2013-03-30 05:43:00,37.2,18.9,30.09,SSW,196,0.0,2.7,47,0.00,,---,0.00,VWS V14.01,2013-03-30 11:43:00,
2013-03-30 05:44:00,37.2,18.4,30.09,SSW,196,0.0,2.7,46,0.00,,---,0.00,VWS V14.01,2013-03-30 11:44:00,
2013-03-30 05:46:00,37.4,18.5,30.09,SSW,196,0.0,0.0,46,0.00,,---,0.00,VWS V14.01,2013-03-30 11:46:00,
2013-03-30 05:47:00,37.4,18.5,30.09,SSW,196,0.0,0.0,46,0.00,,---,0.00,VWS V14.01,2013-03-30 11:47:00,
2013-03-30 05:48:00,37.4,18.5,30.09,SSW,196,0.0,0.0,46,0.00,,---,0.00,VWS V14.01,2013-03-30 11:48:00,
2013-03-30 05:49:00,37.4,18.5,30.09,SSW,196,0.0,0.0,46,0.00,,---,0.00,VWS V14.01,2013-03-30 11:49:00,
2013-03-30 05:51:00,37.6,18.7,30.09,SSE,151,2.7,4.0,46,0.00,,---,0.00,VWS V14.01,2013-03-30 11:51:00,
2013-03-30 05:53:00,37.6,18.2,30.09,SSE,151,3.1,4.0,45,0.00,,---,0.00,VWS V14.01,2013-03-30 11:53:00,
2013-03-30 05:54:00,37.8,18.3,30.09,SSE,151,2.2,4.0,45,0.00,,---,0.00,VWS V14.01,2013-03-30 11:54:00,
2013-03-30 05:55:00,37.9,18.5,30.09,SSE,151,0.0,4.0,45,0.00,,---,0.00,VWS V14.01,2013-03-30 11:55:00,
2013-03-30 05:56:00,37.9,18.5,30.09,SSE,151,0.0,4.0,45,0.00,,---,0.00,VWS V14.01,2013-03-30 11:56:00,
2013-03-30 05:58:00,37.9,18.5,30.09,SSE,151,2.7,4.0,45,0.00,,---,0.00,VWS V14.01,2013-03-30 11:58:00,
2013-03-30 06:00:00,38.1,18.7,30.09,SSE,151,0.0,2.7,45,0.00,,---,0.00,VWS V14.01,2013-03-30 12:00:00,
2013-03-30 06:02:00,38.1,18.1,30.09,SSE,151,0.0,2.7,44,0.00,,---,0.00,VWS V14.01,2013-03-30 12:02:00,
2013-03-30 06:03:00,38.1,18.1,30.09,SSE,151,0.0,2.7,44,0.00,,---,0.00,VWS V14.01,2013-03-30 12:03:00,
2013-03-30 06:04:00,38.1,18.1,30.09,SSE,151,0.0,2.7,44,0.00,,---,0.00,VWS V14.01,2013-03-30 12:04:00,
2013-03-30 06:05:00,38.1,18.1,30.09,SSE,151,0.0,2.7,44,0.00,,---,0.00,VWS V14.01,2013-03-30 12:05:00,
2013-03-30 06:07:00,38.1,18.1,30.09,SSE,151,0.0,2.7,44,0.00,,---,0.00,VWS V14.01,2013-03-30 12:07:00,
2013-03-30 06:08:00,38.1,18.1,30.09,SSE,151,2.2,2.7,44,0.00,,---,0.00,VWS V14.01,2013-03-30 12:08:00,
2013-03-30 06:09:00,38.1,18.1,30.09,SSE,154,2.7,2.7,44,0.00,,---,0.00,VWS V14.01,2013-03-30 12:09:00,
2013-03-30 06:10:00,38.3,17.8,30.09,South,187,2.7,2.7,43,0.00,,---,0.00,VWS V14.01,2013-03-30 12:10:00,
2013-03-30 06:12:00,38.5,17.9,30.09,SSW,197,0.0,2.7,43,0.00,,---,0.00,VWS V14.01,2013-03-30 12:12:00,
2013-03-30 06:13:00,38.5,17.9,30.09,SSW,197,0.0,2.7,43,0.00,,---,0.00,VWS V14.01,2013-03-30 12:13:00,
2013-03-30 06:14:00,38.5,17.9,30.09,SSW,197,0.0,2.7,43,0.00,,---,0.00,VWS V14.01,2013-03-30 12:14:00,
2013-03-30 06:15:00,38.5,17.9,30.09,SSW,197,0.0,0.0,43,0.00,,---,0.00,VWS V14.01,2013-03-30 12:15:00,
2013-03-30 06:17:00,38.1,17.6,30.09,SSW,210,0.0,0.0,43,0.00,,---,0.00,VWS V14.01,2013-03-30 12:17:00,
2013-03-30 06:19:00,38.1,17.6,30.09,SSW,211,2.2,2.2,43,0.00,,---,0.00,VWS V14.01,2013-03-30 12:19:00,
2013-03-30 06:20:00,37.9,17.5,30.09,SSW,202,2.7,2.7,43,0.00,,---,0.00,VWS V14.01,2013-03-30 12:20:00,
2013-03-30 06:22:00,37.9,18.0,30.09,SSW,202,0.0,2.7,44,0.00,,---,0.00,VWS V14.01,2013-03-30 12:22:00,
2013-03-30 06:24:00,37.9,18.0,30.09,SSW,202,3.1,3.1,44,0.00,,---,0.00,VWS V14.01,2013-03-30 12:24:00,
2013-03-30 06:25:00,37.8,17.8,30.09,SSW,202,3.1,3.1,44,0.00,,---,0.00,VWS V14.01,2013-03-30 12:25:00,
2013-03-30 06:28:00,37.8,17.8,30.09,SSW,202,2.2,3.1,44,0.00,,---,0.00,VWS V14.01,2013-03-30 12:28:00,
2013-03-30 06:29:00,37.8,17.8,30.09,SSW,202,0.0,3.1,44,0.00,,---,0.00,VWS V14.01,2013-03-30 12:29:00,
2013-03-30 06:30:00,37.6,17.7,30.09,SSW,202,0.0,0.0,44,0.00,,---,0.00,VWS V14.01,2013-03-30 12:30:00,
2013-03-30 06:33:00,37.4,17.5,30.09,SSW,202,0.0,0.0,44,0.00,,---,0.00,VWS V14.01,2013-03-30 12:33:00,
2013-03-30 06:34:00,37.4,17.5,30.09,SSW,202,0.0,0.0,44,0.00,,---,0.00,VWS V14.01,2013-03-30 12:34:00,
2013-03-30 06:35:00,37.2,17.3,30.09,SSW,202,3.1,3.1,44,0.00,,---,0.00,VWS V14.01,2013-03-30 12:35:00,
2013-03-30 06:38:00,37.0,17.7,30.09,SSW,202,3.1,3.1,45,0.00,,---,0.00,VWS V14.01,2013-03-30 12:38:00,
2013-03-30 06:39:00,37.0,17.7,30.09,SSW,202,0.0,3.1,45,0.00,,---,0.00,VWS V14.01,2013-03-30 12:39:00,
2013-03-30 06:40:00,37.0,17.7,30.09,SSW,202,0.0,3.1,45,0.00,,---,0.00,VWS V14.01,2013-03-30 12:40:00,
2013-03-30 06:43:00,36.9,18.0,30.09,SSW,192,2.7,3.6,46,0.00,,---,0.00,VWS V14.01,2013-03-30 12:43:00,
2013-03-30 06:44:00,37.0,18.2,30.09,SSW,192,0.0,3.6,46,0.00,,---,0.00,VWS V14.01,2013-03-30 12:44:00,
2013-03-30 06:45:00,37.0,18.2,30.09,SSW,192,0.0,0.0,46,0.00,,---,0.00,VWS V14.01,2013-03-30 12:45:00,
2013-03-30 06:46:00,37.0,18.2,30.09,SSW,192,0.0,2.2,46,0.00,,---,0.00,VWS V14.01,2013-03-30 12:46:00,
2013-03-30 06:48:00,37.0,18.2,30.09,SSW,197,4.0,4.0,46,0.00,,---,0.00,VWS V14.01,2013-03-30 12:48:00,
2013-03-30 06:50:00,37.0,18.2,30.09,SSW,209,2.2,4.0,46,0.00,,---,0.00,VWS V14.01,2013-03-30 12:50:00,
2013-03-30 06:51:00,37.0,18.2,30.09,SSW,209,2.7,4.0,46,0.00,,---,0.00,VWS V14.01,2013-03-30 12:51:00,
2013-03-30 06:53:00,37.0,18.2,30.09,SSW,194,0.0,4.0,46,0.00,,---,0.00,VWS V14.01,2013-03-30 12:53:00,
2013-03-30 06:55:00,37.0,18.2,30.09,SSW,194,2.7,4.0,46,0.00,,---,0.00,VWS V14.01,2013-03-30 12:55:00,
2013-03-30 06:56:00,37.0,18.7,30.09,SSW,194,0.0,4.0,47,0.00,,---,0.00,VWS V14.01,2013-03-30 12:56:00,
2013-03-30 06:58:00,37.2,18.9,30.09,SSW,194,3.6,4.0,47,0.00,,---,0.00,VWS V14.01,2013-03-30 12:58:00,
2013-03-30 07:00:00,37.2,18.9,30.09,SSW,194,2.7,2.7,47,0.00,,---,0.00,VWS V14.01,2013-03-30 13:00:00,
2013-03-30 07:01:00,37.4,18.5,30.09,SSW,194,2.7,2.7,46,0.00,,---,0.00,VWS V14.01,2013-03-30 13:01:00,
2013-03-30 07:04:00,37.4,18.5,30.09,SSW,206,3.6,3.6,46,0.00,,---,0.00,VWS V14.01,2013-03-30 13:04:00,
2013-03-30 07:05:00,37.6,18.7,30.09,SSW,193,3.6,3.6,46,0.00,,---,0.00,VWS V14.01,2013-03-30 13:05:00,
2013-03-30 07:06:00,37.6,18.7,30.09,SSW,199,3.6,4.0,46,0.00,,---,0.00,VWS V14.01,2013-03-30 13:06:00,
2013-03-30 07:09:00,37.8,18.3,30.09,SSW,200,4.0,4.0,45,0.00,,---,0.00,VWS V14.01,2013-03-30 13:09:00,
2013-03-30 07:11:00,37.8,18.3,30.09,SSW,200,2.7,4.0,45,0.00,,---,0.00,VWS V14.01,2013-03-30 13:11:00,
2013-03-30 07:12:00,37.8,18.3,30.09,SSW,200,2.7,4.0,45,0.00,,---,0.00,VWS V14.01,2013-03-30 13:12:00,
2013-03-30 07:14:00,37.8,18.3,30.09,SSW,200,3.1,4.0,45,0.00,,---,0.00,VWS V14.01,2013-03-30 13:14:00,
2013-03-30 07:16:00,37.6,18.2,30.09,SSW,193,2.2,5.8,45,0.00,,---,0.00,VWS V14.01,2013-03-30 13:16:00,
2013-03-30 07:18:00,37.8,18.3,30.09,South,191,3.1,5.8,45,0.00,,---,0.00,VWS V14.01,2013-03-30 13:18:00,
2013-03-30 07:19:00,37.8,18.3,30.09,South,191,2.7,5.8,45,0.00,,---,0.00,VWS V14.01,2013-03-30 13:19:00,
2013-03-30 07:21:00,37.8,18.3,30.09,South,191,2.2,5.8,45,0.00,,---,0.00,VWS V14.01,2013-03-30 13:21:00,
2013-03-30 07:23:00,37.8,18.3,30.09,SSW,194,3.1,5.8,45,0.00,,---,0.00,VWS V14.01,2013-03-30 13:23:00,
2013-03-30 07:24:00,37.8,18.3,30.09,SSW,201,3.6,5.8,45,0.00,,---,0.00,VWS V14.01,2013-03-30 13:24:00,
2013-03-30 07:26:00,37.8,18.3,30.09,South,183,2.2,5.8,45,0.00,,---,0.00,VWS V14.01,2013-03-30 13:26:00,
2013-03-30 07:28:00,37.8,18.3,30.09,South,183,3.1,5.8,45,0.00,,---,0.00,VWS V14.01,2013-03-30 13:28:00,
2013-03-30 07:29:00,37.6,18.2,30.09,SSW,193,3.1,5.8,45,0.00,,---,0.00,VWS V14.01,2013-03-30 13:29:00,
2013-03-30 07:31:00,37.6,18.2,30.09,SSW,194,2.7,3.6,45,0.00,,---,0.00,VWS V14.01,2013-03-30 13:31:00,
2013-03-30 07:33:00,37.6,18.2,30.09,SSW,202,4.0,4.0,45,0.00,,---,0.00,VWS V14.01,2013-03-30 13:33:00,
2013-03-30 07:35:00,37.8,18.3,30.09,SSW,196,3.1,5.4,45,0.00,,---,0.00,VWS V14.01,2013-03-30 13:35:00,
2013-03-30 07:36:00,37.8,18.3,30.09,SSW,197,3.6,5.4,45,0.00,,---,0.00,VWS V14.01,2013-03-30 13:36:00,
2013-03-30 07:38:00,37.9,18.5,30.09,SSW,197,4.0,5.4,45,0.00,,---,0.00,VWS V14.01,2013-03-30 13:38:00,
2013-03-30 07:40:00,38.1,18.7,30.09,SSW,200,6.3,6.3,45,0.00,,---,0.00,VWS V14.01,2013-03-30 13:40:00,
2013-03-30 07:41:00,38.1,18.7,30.09,SSW,207,5.4,6.3,45,0.00,,---,0.00,VWS V14.01,2013-03-30 13:41:00,
2013-03-30 07:43:00,38.5,18.5,30.09,SSW,204,4.0,6.3,44,0.00,,---,0.00,VWS V14.01,2013-03-30 13:43:00,
2013-03-30 07:45:00,38.5,18.5,30.09,SW,220,5.4,6.3,44,0.00,,---,0.00,VWS V14.01,2013-03-30 13:45:00,
2013-03-30 07:47:00,38.7,18.6,30.09,SSW,207,4.9,8.1,44,0.00,,---,0.00,VWS V14.01,2013-03-30 13:47:00,
2013-03-30 07:48:00,38.8,18.8,30.09,SSW,199,3.6,8.1,44,0.00,,---,0.00,VWS V14.01,2013-03-30 13:48:00,
2013-03-30 07:50:00,38.8,18.3,30.09,SSW,197,3.1,8.1,43,0.00,,---,0.00,VWS V14.01,2013-03-30 13:50:00,
2013-03-30 07:52:00,39.0,18.4,30.09,South,182,2.2,8.1,43,0.00,,---,0.00,VWS V14.01,2013-03-30 13:52:00,
2013-03-30 07:53:00,39.0,18.4,30.09,South,187,5.8,8.1,43,0.00,,---,0.00,VWS V14.01,2013-03-30 13:53:00,
2013-03-30 07:55:00,39.2,18.6,30.09,South,183,2.2,8.1,43,0.00,,---,0.00,VWS V14.01,2013-03-30 13:55:00,
2013-03-30 07:57:00,39.2,18.6,30.09,South,183,0.0,8.1,43,0.00,,---,0.00,VWS V14.01,2013-03-30 13:57:00,
2013-03-30 07:58:00,39.4,18.8,30.09,South,182,2.7,8.1,43,0.00,,---,0.00,VWS V14.01,2013-03-30 13:58:00,
2013-03-30 08:00:00,39.4,18.8,30.09,WSW,249,0.0,0.0,43,0.00,,---,0.00,VWS V14.01,2013-03-30 14:00:00,
2013-03-30 08:02:00,39.4,18.8,30.09,WSW,249,0.0,0.0,43,0.00,,---,0.00,VWS V14.01,2013-03-30 14:02:00,
2013-03-30 08:03:00,39.4,18.8,30.09,SSE,166,2.2,3.6,43,0.00,,---,0.00,VWS V14.01,2013-03-30 14:03:00,
2013-03-30 08:06:00,39.6,18.9,30.09,SSE,166,0.0,3.6,43,0.00,,---,0.00,VWS V14.01,2013-03-30 14:06:00,
2013-03-30 08:07:00,39.6,18.4,30.09,South,186,2.7,4.9,42,0.00,,---,0.00,VWS V14.01,2013-03-30 14:07:00,
2013-03-30 08:08:00,39.7,18.5,30.09,SSW,193,3.1,4.9,42,0.00,,---,0.00,VWS V14.01,2013-03-30 14:08:00,
2013-03-30 08:09:00,39.7,18.5,30.09,WSW,250,2.7,4.9,42,0.00,,---,0.00,VWS V14.01,2013-03-30 14:09:00,
2013-03-30 08:11:00,40.1,18.9,30.09,West,274,2.7,4.9,42,0.00,,---,0.00,VWS V14.01,2013-03-30 14:11:00,
2013-03-30 08:12:00,40.1,18.9,30.09,West,273,0.0,4.9,42,0.00,,---,0.00,VWS V14.01,2013-03-30 14:12:00,
2013-03-30 08:13:00,40.3,19.0,30.09,West,272,0.0,4.9,42,0.00,,---,0.00,VWS V14.01,2013-03-30 14:13:00,
2013-03-30 08:14:00,40.3,19.0,30.09,West,272,0.0,4.9,42,0.00,,---,0.00,VWS V14.01,2013-03-30 14:14:00,
2013-03-30 08:16:00,40.5,18.6,30.09,SSW,198,0.0,3.6,41,0.00,,---,0.00,VWS V14.01,2013-03-30 14:16:00,
2013-03-30 08:18:00,40.6,18.8,30.09,SSW,198,0.0,3.6,41,0.00,,---,0.00,VWS V14.01,2013-03-30 14:18:00,
2013-03-30 08:19:00,40.8,19.0,30.09,SW,219,3.1,3.6,41,0.00,,---,0.00,VWS V14.01,2013-03-30 14:19:00,
2013-03-30 08:21:00,41.2,19.3,30.09,South,191,2.7,3.6,41,0.00,,---,0.00,VWS V14.01,2013-03-30 14:21:00,
2013-03-30 08:23:00,41.4,18.9,30.09,West,260,2.7,3.6,40,0.00,,---,0.00,VWS V14.01,2013-03-30 14:23:00,
2013-03-30 08:24:00,41.7,19.2,30.09,SW,214,2.7,3.6,40,0.00,,---,0.00,VWS V14.01,2013-03-30 14:24:00,
2013-03-30 08:26:00,42.3,19.7,30.09,SSW,198,5.8,6.3,40,0.00,,---,0.00,VWS V14.01,2013-03-30 14:26:00,
2013-03-30 08:28:00,42.3,19.7,30.09,WSW,249,2.7,6.3,40,0.00,,---,0.00,VWS V14.01,2013-03-30 14:28:00,
2013-03-30 08:29:00,42.3,19.1,30.09,SSW,203,4.0,6.3,39,0.00,,---,0.00,VWS V14.01,2013-03-30 14:29:00,
2013-03-30 08:31:00,42.3,19.1,30.09,SSW,192,5.4,5.4,39,0.00,,---,0.00,VWS V14.01,2013-03-30 14:31:00,
2013-03-30 08:33:00,42.3,19.1,30.09,SSW,208,2.2,5.8,39,0.00,,---,0.00,VWS V14.01,2013-03-30 14:33:00,
2013-03-30 08:34:00,42.3,19.1,30.09,West,275,5.4,5.8,39,0.00,,---,0.00,VWS V14.01,2013-03-30 14:34:00,
2013-03-30 08:37:00,42.4,19.2,30.09,SSW,206,3.1,5.8,39,0.00,,---,0.00,VWS V14.01,2013-03-30 14:37:00,
2013-03-30 08:38:00,42.6,19.4,30.09,SSW,206,2.7,5.8,39,0.00,,---,0.00,VWS V14.01,2013-03-30 14:38:00,
2013-03-30 08:39:00,42.8,19.6,30.09,South,190,2.7,5.8,39,0.00,,---,0.00,VWS V14.01,2013-03-30 14:39:00,
2013-03-30 08:42:00,43.0,19.7,30.09,WSW,253,2.2,5.8,39,0.00,,---,0.00,VWS V14.01,2013-03-30 14:42:00,
2013-03-30 08:43:00,43.0,19.7,30.09,West,281,2.7,5.8,39,0.00,,---,0.00,VWS V14.01,2013-03-30 14:43:00,
2013-03-30 08:44:00,43.0,19.7,30.09,SSW,202,3.6,5.8,39,0.00,,---,0.00,VWS V14.01,2013-03-30 14:44:00,
2013-03-30 08:47:00,43.2,19.3,30.09,SW,229,4.0,4.9,38,0.00,,---,0.00,VWS V14.01,2013-03-30 14:47:00,
2013-03-30 08:48:00,43.2,19.3,30.09,South,179,2.7,4.9,38,0.00,,---,0.00,VWS V14.01,2013-03-30 14:48:00,
2013-03-30 08:49:00,43.2,19.3,30.09,SSW,206,3.1,4.9,38,0.00,,---,0.00,VWS V14.01,2013-03-30 14:49:00,
2013-03-30 08:52:00,43.3,19.5,30.09,WSW,258,3.6,4.9,38,0.00,,---,0.00,VWS V14.01,2013-03-30 14:52:00,
2013-03-30 08:53:00,43.3,19.5,30.09,West,263,3.1,4.9,38,0.00,,---,0.00,VWS V14.01,2013-03-30 14:53:00,
2013-03-30 08:54:00,43.5,19.6,30.09,WNW,299,2.2,4.9,38,0.00,,---,0.00,VWS V14.01,2013-03-30 14:54:00,
2013-03-30 08:55:00,43.5,19.6,30.09,WNW,284,3.1,4.9,38,0.00,,---,0.00,VWS V14.01,2013-03-30 14:55:00,
2013-03-30 08:57:00,43.5,19.6,30.09,West,259,3.1,4.9,38,0.00,,---,0.00,VWS V14.01,2013-03-30 14:57:00,
2013-03-30 08:58:00,43.7,19.8,30.09,West,278,0.0,4.9,38,0.00,,---,0.00,VWS V14.01,2013-03-30 14:58:00,
2013-03-30 08:59:00,43.7,19.8,30.09,West,278,2.7,4.9,38,0.00,,---,0.00,VWS V14.01,2013-03-30 14:59:00,
2013-03-30 09:00:00,43.7,19.8,30.09,West,278,2.7,4.9,38,0.00,,---,0.00,VWS V14.01,2013-03-30 15:00:00,
2013-03-30 09:02:00,43.7,19.8,30.09,WNW,292,3.6,3.6,38,0.00,,---,0.00,VWS V14.01,2013-03-30 15:02:00,
2013-03-30 09:03:00,43.7,19.8,30.09,WNW,288,2.7,3.6,38,0.00,,---,0.00,VWS V14.01,2013-03-30 15:03:00,
2013-03-30 09:04:00,43.7,19.8,30.09,SW,224,2.7,3.6,38,0.00,,---,0.00,VWS V14.01,2013-03-30 15:04:00,
2013-03-30 09:05:00,43.7,19.8,30.09,SW,220,2.7,3.6,38,0.00,,---,0.00,VWS V14.01,2013-03-30 15:05:00,
2013-03-30 09:07:00,43.9,19.9,30.09,WNW,300,3.6,3.6,38,0.00,,---,0.00,VWS V14.01,2013-03-30 15:07:00,
2013-03-30 09:09:00,43.9,19.9,30.09,West,270,2.7,3.6,38,0.00,,---,0.00,VWS V14.01,2013-03-30 15:09:00,
2013-03-30 09:10:00,43.9,19.9,30.09,West,270,0.0,3.6,38,0.00,,---,0.00,VWS V14.01,2013-03-30 15:10:00,
2013-03-30 09:12:00,43.9,19.9,30.09,West,271,0.0,3.6,38,0.00,,---,0.00,VWS V14.01,2013-03-30 15:12:00,
2013-03-30 09:14:00,43.9,19.9,30.09,South,187,3.1,3.6,38,0.00,,---,0.00,VWS V14.01,2013-03-30 15:14:00,
2013-03-30 09:15:00,44.1,20.1,30.09,South,170,3.6,3.6,38,0.00,,---,0.00,VWS V14.01,2013-03-30 15:15:00,
2013-03-30 09:18:00,44.4,20.4,30.09,WSW,243,4.0,5.8,38,0.00,,---,0.00,VWS V14.01,2013-03-30 15:18:00,
2013-03-30 09:19:00,44.6,20.0,30.09,SW,223,3.1,5.8,37,0.00,,---,0.00,VWS V14.01,2013-03-30 15:19:00,
2013-03-30 09:20:00,44.8,20.1,30.09,WSW,240,3.6,5.8,37,0.00,,---,0.00,VWS V14.01,2013-03-30 15:20:00,
2013-03-30 09:23:00,45.3,20.6,30.09,West,270,3.6,5.8,37,0.00,,---,0.00,VWS V14.01,2013-03-30 15:23:00,
2013-03-30 09:25:00,45.9,21.1,30.09,SSW,206,3.6,5.8,37,0.00,,---,0.00,VWS V14.01,2013-03-30 15:25:00,
2013-03-30 09:28:00,46.0,20.6,30.09,SSW,211,4.9,5.8,36,0.00,,---,0.00,VWS V14.01,2013-03-30 15:28:00,
2013-03-30 09:30:00,46.2,20.1,30.09,SW,219,2.7,3.1,35,0.00,,---,0.00,VWS V14.01,2013-03-30 15:30:00,
2013-03-30 09:31:00,46.2,20.1,30.09,SW,228,2.7,3.1,35,0.00,,---,0.00,VWS V14.01,2013-03-30 15:31:00,
2013-03-30 09:33:00,46.6,20.4,30.09,WSW,257,0.0,4.0,35,0.00,,---,0.00,VWS V14.01,2013-03-30 15:33:00,
2013-03-30 09:35:00,47.1,20.9,30.09,SW,216,3.6,4.0,35,0.00,,---,0.00,VWS V14.01,2013-03-30 15:35:00,
2013-03-30 09:36:00,47.3,20.4,30.09,West,273,3.6,5.4,34,0.00,,---,0.00,VWS V14.01,2013-03-30 15:36:00,
2013-03-30 09:38:00,47.3,20.4,30.09,SW,215,2.2,5.4,34,0.00,,---,0.00,VWS V14.01,2013-03-30 15:38:00,
2013-03-30 09:40:00,47.3,19.7,30.09,WNW,283,4.9,5.4,33,0.00,,---,0.00,VWS V14.01,2013-03-30 15:40:00,
2013-03-30 09:41:00,47.1,19.5,30.09,West,265,4.9,5.4,33,0.00,,---,0.00,VWS V14.01,2013-03-30 15:41:00,
2013-03-30 09:42:00,47.1,20.2,30.09,West,262,3.1,5.4,34,0.00,,---,0.00,VWS V14.01,2013-03-30 15:42:00,
2013-03-30 09:43:00,46.8,19.2,30.09,West,273,2.7,5.4,33,0.00,,---,0.00,VWS V14.01,2013-03-30 15:43:00,
2013-03-30 09:45:00,46.2,19.4,30.09,West,276,3.1,3.1,34,0.00,,---,0.00,VWS V14.01,2013-03-30 15:45:00,
2013-03-30 09:46:00,46.2,19.4,30.09,West,276,0.0,3.1,34,0.00,,---,0.00,VWS V14.01,2013-03-30 15:46:00,
2013-03-30 09:47:00,46.2,19.4,30.09,West,276,0.0,3.1,34,0.00,,---,0.00,VWS V14.01,2013-03-30 15:47:00,
2013-03-30 09:49:00,45.9,19.1,30.09,West,281,2.7,4.9,34,0.00,,---,0.00,VWS V14.01,2013-03-30 15:49:00,
2013-03-30 09:51:00,45.1,19.1,30.09,SSW,204,3.6,4.9,35,0.00,,---,0.00,VWS V14.01,2013-03-30 15:51:00,
2013-03-30 09:52:00,45.1,19.1,30.09,SSW,204,2.2,4.9,35,0.00,,---,0.00,VWS V14.01,2013-03-30 15:52:00,
2013-03-30 09:54:00,44.8,18.8,30.09,WSW,249,2.2,4.9,35,0.00,,---,0.00,VWS V14.01,2013-03-30 15:54:00,
2013-03-30 09:57:00,45.0,19.6,30.09,North,353,2.7,4.9,36,0.00,,---,0.00,VWS V14.01,2013-03-30 15:57:00,
2013-03-30 09:59:00,45.3,20.0,30.09,WNW,283,2.7,4.9,36,0.00,,---,0.00,VWS V14.01,2013-03-30 15:59:00,
2013-03-30 10:02:00,46.2,20.1,30.09,NW,322,2.7,4.0,35,0.00,,---,0.00,VWS V14.01,2013-03-30 16:02:00,
2013-03-30 10:03:00,46.6,19.7,30.09,NNW,344,4.5,4.5,34,0.00,,---,0.00,VWS V14.01,2013-03-30 16:03:00,
2013-03-30 10:04:00,46.8,19.2,30.09,NW,318,3.6,4.5,33,0.00,,---,0.00,VWS V14.01,2013-03-30 16:04:00,
2013-03-30 10:07:00,47.1,19.5,30.09,West,259,3.6,6.3,33,0.00,,---,0.00,VWS V14.01,2013-03-30 16:07:00,
2013-03-30 10:08:00,47.1,18.8,30.09,NW,311,3.6,6.3,32,0.00,,---,0.00,VWS V14.01,2013-03-30 16:08:00,
2013-03-30 10:09:00,47.1,19.5,30.09,NW,325,5.4,6.3,33,0.00,,---,0.00,VWS V14.01,2013-03-30 16:09:00,
2013-03-30 10:12:00,47.1,19.5,30.09,NNW,348,8.1,8.1,33,0.00,,---,0.00,VWS V14.01,2013-03-30 16:12:00,
2013-03-30 10:13:00,47.1,18.8,30.09,NW,316,5.4,8.1,32,0.00,,---,0.00,VWS V14.01,2013-03-30 16:13:00,
2013-03-30 10:14:00,47.1,18.8,30.09,North,353,3.6,8.1,32,0.00,,---,0.00,VWS V14.01,2013-03-30 16:14:00,
2013-03-30 10:17:00,46.8,18.5,30.11,NW,317,2.7,5.8,32,0.00,,---,0.00,VWS V14.01,2013-03-30 16:17:00,
2013-03-30 10:18:00,46.8,18.5,30.11,NW,316,3.1,5.8,32,0.00,,---,0.00,VWS V14.01,2013-03-30 16:18:00,
2013-03-30 10:19:00,46.8,19.2,30.11,WNW,282,5.8,5.8,33,0.00,,---,0.00,VWS V14.01,2013-03-30 16:19:00,
2013-03-30 10:22:00,46.6,18.3,30.11,West,281,4.0,7.2,32,0.00,,---,0.00,VWS V14.01,2013-03-30 16:22:00,
2013-03-30 10:23:00,46.6,18.3,30.11,NW,326,4.0,7.2,32,0.00,,---,0.00,VWS V14.01,2013-03-30 16:23:00,
2013-03-30 10:24:00,46.6,18.3,30.11,NW,319,3.1,7.2,32,0.00,,---,0.00,VWS V14.01,2013-03-30 16:24:00,
2013-03-30 10:27:00,46.4,18.9,30.11,West,266,3.6,7.2,33,0.00,,---,0.00,VWS V14.01,2013-03-30 16:27:00,
2013-03-30 10:28:00,46.4,18.9,30.11,NW,309,3.1,7.2,33,0.00,,---,0.00,VWS V14.01,2013-03-30 16:28:00,
2013-03-30 10:29:00,46.4,18.9,30.11,NW,312,3.1,7.2,33,0.00,,---,0.00,VWS V14.01,2013-03-30 16:29:00,
2013-03-30 10:30:00,46.4,18.9,30.11,North,357,2.7,7.2,33,0.00,,---,0.00,VWS V14.01,2013-03-30 16:30:00,
2013-03-30 10:33:00,46.9,19.4,30.11,NW,308,3.6,5.4,33,0.00,,---,0.00,VWS V14.01,2013-03-30 16:33:00,
2013-03-30 10:34:00,47.3,19.0,30.11,North,349,6.3,6.3,32,0.00,,---,0.00,VWS V14.01,2013-03-30 16:34:00,
2013-03-30 10:35:00,47.3,19.0,30.11,NNW,348,5.4,6.3,32,0.00,,---,0.00,VWS V14.01,2013-03-30 16:35:00,
2013-03-30 10:38:00,46.9,18.6,30.11,NNE,12,5.4,6.3,32,0.00,,---,0.00,VWS V14.01,2013-03-30 16:38:00,
2013-03-30 10:39:00,46.8,18.5,30.11,North,357,5.4,6.3,32,0.00,,---,0.00,VWS V14.01,2013-03-30 16:39:00,
2013-03-30 10:40:00,46.8,18.5,30.11,NW,313,5.8,6.7,32,0.00,,---,0.00,VWS V14.01,2013-03-30 16:40:00,
2013-03-30 10:43:00,46.9,19.4,30.11,NW,320,3.1,6.7,33,0.00,,---,0.00,VWS V14.01,2013-03-30 16:43:00,
2013-03-30 10:44:00,46.9,19.4,30.11,North,357,4.0,6.7,33,0.00,,---,0.00,VWS V14.01,2013-03-30 16:44:00,
2013-03-30 10:45:00,47.3,19.0,30.11,North,4,5.8,5.8,32,0.00,,---,0.00,VWS V14.01,2013-03-30 16:45:00,
2013-03-30 10:48:00,47.5,18.4,30.11,North,353,4.0,8.3,31,0.00,,---,0.00,VWS V14.01,2013-03-30 16:48:00,
2013-03-30 10:49:00,47.5,19.1,30.11,NW,321,2.7,8.3,32,0.00,,---,0.00,VWS V14.01,2013-03-30 16:49:00,
2013-03-30 10:50:00,47.5,18.4,30.11,NNW,335,3.1,8.3,31,0.00,,---,0.00,VWS V14.01,2013-03-30 16:50:00,
2013-03-30 10:53:00,47.7,18.5,30.11,NW,304,3.1,8.3,31,0.00,,---,0.00,VWS V14.01,2013-03-30 16:53:00,
2013-03-30 10:54:00,47.7,18.5,30.11,NW,312,4.9,8.3,31,0.00,,---,0.00,VWS V14.01,2013-03-30 16:54:00,
2013-03-30 10:55:00,47.7,18.5,30.11,North,357,2.7,8.3,31,0.00,,---,0.00,VWS V14.01,2013-03-30 16:55:00,
2013-03-30 10:58:00,48.0,18.8,30.11,NW,312,3.1,8.3,31,0.00,,---,0.00,VWS V14.01,2013-03-30 16:58:00,
2013-03-30 10:59:00,48.0,18.8,30.11,North,353,3.1,8.3,31,0.00,,---,0.00,VWS V14.01,2013-03-30 16:59:00,
2013-03-30 11:00:00,48.2,18.2,30.11,WSW,252,0.0,2.7,30,0.00,,---,0.00,VWS V14.01,2013-03-30 17:00:00,
2013-03-30 11:04:00,48.7,18.7,30.11,North,0,6.3,8.7,30,0.00,,---,0.00,VWS V14.01,2013-03-30 17:04:00,
2013-03-30 11:05:00,48.7,17.9,30.11,North,357,4.0,8.7,29,0.00,,---,0.00,VWS V14.01,2013-03-30 17:05:00,
2013-03-30 11:09:00,48.6,18.5,30.11,North,8,4.9,8.7,30,0.00,,---,0.00,VWS V14.01,2013-03-30 17:09:00,
2013-03-30 11:10:00,48.6,18.5,30.11,NNE,29,4.9,8.7,30,0.00,,---,0.00,VWS V14.01,2013-03-30 17:10:00,
2013-03-30 11:14:00,48.6,17.8,30.11,NNE,16,0.0,8.7,29,0.00,,---,0.00,VWS V14.01,2013-03-30 17:14:00,
2013-03-30 11:15:00,48.6,17.8,30.11,North,357,0.0,8.7,29,0.00,,---,0.00,VWS V14.01,2013-03-30 17:15:00,
2013-03-30 11:16:00,48.6,18.5,30.11,North,357,4.9,5.8,30,0.00,,---,0.00,VWS V14.01,2013-03-30 17:16:00,
2013-03-30 11:19:00,48.4,17.6,30.11,North,3,3.1,5.8,29,0.00,,---,0.00,VWS V14.01,2013-03-30 17:19:00,
2013-03-30 11:20:00,48.4,17.6,30.11,North,353,2.7,5.8,29,0.00,,---,0.00,VWS V14.01,2013-03-30 17:20:00,
2013-03-30 11:21:00,48.2,17.5,30.11,NW,315,3.1,5.8,29,0.00,,---,0.00,VWS V14.01,2013-03-30 17:21:00,
2013-03-30 11:24:00,47.8,17.1,30.11,WNW,300,3.1,5.8,29,0.00,,---,0.00,VWS V14.01,2013-03-30 17:24:00,
2013-03-30 11:25:00,47.8,17.1,30.11,NW,313,5.8,5.8,29,0.00,,---,0.00,VWS V14.01,2013-03-30 17:25:00,
2013-03-30 11:27:00,47.7,17.0,30.11,NW,305,4.5,5.8,29,0.00,,---,0.00,VWS V14.01,2013-03-30 17:27:00,
2013-03-30 11:29:00,47.8,17.1,30.11,NW,304,2.7,5.8,29,0.00,,---,0.00,VWS V14.01,2013-03-30 17:29:00,
2013-03-30 11:30:00,47.8,17.1,30.11,West,268,3.1,5.8,29,0.00,,---,0.00,VWS V14.01,2013-03-30 17:30:00,
2013-03-30 11:31:00,47.8,17.1,30.11,NW,305,3.1,3.1,29,0.00,,---,0.00,VWS V14.01,2013-03-30 17:31:00,
2013-03-30 11:32:00,47.8,17.1,30.11,North,0,4.0,4.0,29,0.00,,---,0.00,VWS V14.01,2013-03-30 17:32:00,
2013-03-30 11:35:00,48.0,17.3,30.11,NW,310,2.2,4.0,29,0.00,,---,0.00,VWS V14.01,2013-03-30 17:35:00,
2013-03-30 11:36:00,48.0,17.3,30.11,WSW,241,2.7,4.0,29,0.00,,---,0.00,VWS V14.01,2013-03-30 17:36:00,
2013-03-30 11:37:00,47.8,17.1,30.11,West,276,3.6,4.0,29,0.00,,---,0.00,VWS V14.01,2013-03-30 17:37:00,
2013-03-30 11:40:00,47.7,17.0,30.11,NW,307,4.9,4.9,29,0.00,,---,0.00,VWS V14.01,2013-03-30 17:40:00,
2013-03-30 11:41:00,47.7,17.0,30.11,WNW,297,2.7,4.9,29,0.00,,---,0.00,VWS V14.01,2013-03-30 17:41:00,
2013-03-30 11:42:00,47.5,16.8,30.11,NW,320,2.7,4.9,29,0.00,,---,0.00,VWS V14.01,2013-03-30 17:42:00,
2013-03-30 11:45:00,47.3,16.7,30.11,NW,323,0.0,4.9,29,0.00,,---,0.00,VWS V14.01,2013-03-30 17:45:00,
2013-03-30 11:47:00,47.1,16.5,30.11,NW,316,2.2,2.2,29,0.00,,---,0.00,VWS V14.01,2013-03-30 17:47:00,
2013-03-30 11:50:00,47.1,16.5,30.11,West,270,3.1,4.0,29,0.00,,---,0.00,VWS V14.01,2013-03-30 17:50:00,
2013-03-30 11:52:00,47.1,16.5,30.11,WNW,292,3.1,4.9,29,0.00,,---,0.00,VWS V14.01,2013-03-30 17:52:00,
2013-03-30 11:55:00,47.3,16.7,30.11,NNW,342,3.1,4.9,29,0.00,,---,0.00,VWS V14.01,2013-03-30 17:55:00,
2013-03-30 11:57:00,47.7,17.0,30.11,NW,319,3.1,4.9,29,0.00,,---,0.00,VWS V14.01,2013-03-30 17:57:00,
2013-03-30 12:00:00,48.2,16.6,30.09,NW,316,2.7,3.1,28,0.00,,---,0.00,VWS V14.01,2013-03-30 18:00:00,
2013-03-30 12:02:00,48.6,17.0,30.09,NW,326,2.7,3.6,28,0.00,,---,0.00,VWS V14.01,2013-03-30 18:02:00,
2013-03-30 12:06:00,48.9,17.3,30.09,NNE,14,4.9,4.9,28,0.00,,---,0.00,VWS V14.01,2013-03-30 18:06:00,
2013-03-30 12:07:00,48.9,16.4,30.09,North,0,5.8,6.3,27,0.00,,---,0.00,VWS V14.01,2013-03-30 18:07:00,
2013-03-30 12:08:00,48.9,16.4,30.09,North,357,5.8,6.3,27,0.00,,---,0.00,VWS V14.01,2013-03-30 18:08:00,
2013-03-30 12:11:00,48.6,16.1,30.09,NNW,337,2.7,6.3,27,0.00,,---,0.00,VWS V14.01,2013-03-30 18:11:00,
2013-03-30 12:12:00,48.6,16.1,30.09,NNW,340,2.7,6.3,27,0.00,,---,0.00,VWS V14.01,2013-03-30 18:12:00,
2013-03-30 12:13:00,48.6,16.1,30.09,North,357,3.6,6.3,27,0.00,,---,0.00,VWS V14.01,2013-03-30 18:13:00,
2013-03-30 12:16:00,48.4,16.0,30.09,NNE,14,5.8,5.8,27,0.00,,---,0.00,VWS V14.01,2013-03-30 18:16:00,
2013-03-30 12:17:00,48.2,15.8,30.09,North,0,3.6,5.8,27,0.00,,---,0.00,VWS V14.01,2013-03-30 18:17:00,
2013-03-30 12:18:00,48.2,15.8,30.09,NNE,24,3.6,6.3,27,0.00,,---,0.00,VWS V14.01,2013-03-30 18:18:00,
2013-03-30 12:21:00,47.8,16.3,30.09,NNW,346,7.6,8.1,28,0.00,,---,0.00,VWS V14.01,2013-03-30 18:21:00,
2013-03-30 12:23:00,47.8,16.3,30.09,North,2,4.9,8.1,28,0.00,,---,0.00,VWS V14.01,2013-03-30 18:23:00,
2013-03-30 12:26:00,47.5,16.0,30.09,North,0,3.6,8.1,28,0.00,,---,0.00,VWS V14.01,2013-03-30 18:26:00,
2013-03-30 12:28:00,47.3,15.9,30.09,North,353,3.6,8.1,28,0.00,,---,0.00,VWS V14.01,2013-03-30 18:28:00,
2013-03-30 12:29:00,47.3,15.9,30.09,North,3,5.4,8.1,28,0.00,,---,0.00,VWS V14.01,2013-03-30 18:29:00,
2013-03-30 12:32:00,47.8,16.3,30.11,NNW,343,3.6,6.3,28,0.00,,---,0.00,VWS V14.01,2013-03-30 18:32:00,
2013-03-30 12:33:00,48.2,15.8,30.11,North,353,3.6,6.3,27,0.00,,---,0.00,VWS V14.01,2013-03-30 18:33:00,
2013-03-30 12:34:00,48.7,16.3,30.11,North,357,7.6,7.6,27,0.00,,---,0.00,VWS V14.01,2013-03-30 18:34:00,
2013-03-30 12:37:00,50.0,16.5,30.11,NE,44,5.4,8.1,26,0.00,,---,0.00,VWS V14.01,2013-03-30 18:37:00,
2013-03-30 12:38:00,50.2,16.6,30.11,NNE,22,3.6,8.1,26,0.00,,---,0.00,VWS V14.01,2013-03-30 18:38:00,
2013-03-30 12:39:00,50.2,16.6,30.11,North,0,4.5,8.1,26,0.00,,---,0.00,VWS V14.01,2013-03-30 18:39:00,
2013-03-30 12:42:00,50.2,16.6,30.11,NW,315,4.9,9.6,26,0.00,,---,0.00,VWS V14.01,2013-03-30 18:42:00,
2013-03-30 12:43:00,50.2,16.6,30.11,North,353,8.1,9.6,26,0.00,,---,0.00,VWS V14.01,2013-03-30 18:43:00,
2013-03-30 12:44:00,50.2,16.6,30.11,NNE,16,6.3,9.6,26,0.00,,---,0.00,VWS V14.01,2013-03-30 18:44:00,
2013-03-30 12:48:00,50.2,16.6,30.11,North,0,4.0,6.7,26,0.00,,---,0.00,VWS V14.01,2013-03-30 18:48:00,
2013-03-30 12:49:00,50.0,16.5,30.11,North,4,5.8,6.7,26,0.00,,---,0.00,VWS V14.01,2013-03-30 18:49:00,
2013-03-30 12:53:00,49.5,16.9,30.11,NNE,13,4.9,10.5,27,0.00,,---,0.00,VWS V14.01,2013-03-30 18:53:00,
2013-03-30 12:54:00,49.5,16.9,30.11,North,357,5.8,10.5,27,0.00,,---,0.00,VWS V14.01,2013-03-30 18:54:00,
2013-03-30 12:58:00,49.1,16.6,30.11,North,349,6.3,10.5,27,0.00,,---,0.00,VWS V14.01,2013-03-30 18:58:00,
2013-03-30 12:59:00,48.9,16.4,30.11,NNW,335,3.1,10.5,27,0.00,,---,0.00,VWS V14.01,2013-03-30 18:59:00,
2013-03-30 13:00:00,48.7,16.3,30.11,NNW,342,4.0,10.5,27,0.00,,---,0.00,VWS V14.01,2013-03-30 19:00:00,
2013-03-30 13:03:00,49.3,16.7,30.11,North,357,6.3,8.7,27,0.00,,---,0.00,VWS V14.01,2013-03-30 19:03:00,
2013-03-30 13:04:00,49.5,16.9,30.11,North,0,4.0,8.7,27,0.00,,---,0.00,VWS V14.01,2013-03-30 19:04:00,
2013-03-30 13:05:00,49.6,17.0,30.11,North,3,0.0,8.7,27,0.00,,---,0.00,VWS V14.01,2013-03-30 19:05:00,
2013-03-30 13:08:00,50.2,16.6,30.11,North,9,4.0,8.7,26,0.00,,---,0.00,VWS V14.01,2013-03-30 19:08:00,
2013-03-30 13:09:00,50.4,16.8,30.11,North,10,0.0,8.7,26,0.00,,---,0.00,VWS V14.01,2013-03-30 19:09:00,
2013-03-30 13:10:00,50.5,17.0,30.11,NNW,329,3.1,8.7,26,0.00,,---,0.00,VWS V14.01,2013-03-30 19:10:00,
2013-03-30 13:13:00,52.0,18.2,30.11,NNW,337,4.0,8.7,26,0.00,,---,0.00,VWS V14.01,2013-03-30 19:13:00,
2013-03-30 13:14:00,52.0,18.2,30.11,NW,320,4.0,8.7,26,0.00,,---,0.00,VWS V14.01,2013-03-30 19:14:00,
2013-03-30 13:15:00,52.0,18.2,30.09,North,353,4.0,5.8,26,0.00,,---,0.00,VWS V14.01,2013-03-30 19:15:00,
2013-03-30 13:18:00,51.4,17.7,30.09,NNW,343,4.9,5.8,26,0.00,,---,0.00,VWS V14.01,2013-03-30 19:18:00,
2013-03-30 13:19:00,51.3,17.6,30.09,NW,319,3.6,5.8,26,0.00,,---,0.00,VWS V14.01,2013-03-30 19:19:00,
2013-03-30 13:20:00,50.9,17.2,30.09,West,261,2.7,5.8,26,0.00,,---,0.00,VWS V14.01,2013-03-30 19:20:00,
2013-03-30 13:24:00,50.5,17.0,30.09,NW,315,2.7,5.8,26,0.00,,---,0.00,VWS V14.01,2013-03-30 19:24:00,
2013-03-30 13:25:00,50.4,16.8,30.09,West,273,3.1,5.8,26,0.00,,---,0.00,VWS V14.01,2013-03-30 19:25:00,
2013-03-30 13:29:00,51.1,17.4,30.09,South,184,2.7,5.8,26,0.00,,---,0.00,VWS V14.01,2013-03-30 19:29:00,
2013-03-30 13:30:00,51.4,17.7,30.09,SW,219,0.0,0.0,26,0.00,,---,0.00,VWS V14.01,2013-03-30 19:30:00,
2013-03-30 13:34:00,52.5,15.8,30.09,WNW,298,2.7,4.0,23,0.00,,---,0.00,VWS V14.01,2013-03-30 19:34:00,
2013-03-30 13:35:00,52.7,16.0,30.09,NNE,21,3.6,4.0,23,0.00,,---,0.00,VWS V14.01,2013-03-30 19:35:00,
2013-03-30 13:39:00,52.3,15.7,30.09,West,266,2.7,6.3,23,0.00,,---,0.00,VWS V14.01,2013-03-30 19:39:00,
2013-03-30 13:40:00,52.3,13.6,30.09,ESE,112,2.2,6.3,21,0.00,,---,0.00,VWS V14.01,2013-03-30 19:40:00,
2013-03-30 13:41:00,52.3,13.6,30.09,ESE,112,2.2,6.3,21,0.00,,---,0.00,VWS V14.01,2013-03-30 19:41:00,
2013-03-30 13:44:00,52.0,13.3,30.09,West,274,3.6,6.3,21,0.00,,---,0.00,VWS V14.01,2013-03-30 19:44:00,
2013-03-30 13:45:00,51.8,15.2,30.09,SSW,207,3.1,3.1,23,0.00,,---,0.00,VWS V14.01,2013-03-30 19:45:00,
2013-03-30 13:46:00,51.8,15.2,30.09,SSW,210,3.6,3.6,23,0.00,,---,0.00,VWS V14.01,2013-03-30 19:46:00,
2013-03-30 13:49:00,51.4,15.9,30.09,NNW,327,3.6,4.0,24,0.00,,---,0.00,VWS V14.01,2013-03-30 19:49:00,
2013-03-30 13:51:00,51.3,15.7,30.09,WNW,299,3.6,4.9,24,0.00,,---,0.00,VWS V14.01,2013-03-30 19:51:00,
2013-03-30 13:52:00,51.4,15.9,30.09,WNW,288,3.1,4.9,24,0.00,,---,0.00,VWS V14.01,2013-03-30 19:52:00,
2013-03-30 13:54:00,51.6,16.0,30.09,West,279,2.7,4.9,24,0.00,,---,0.00,VWS V14.01,2013-03-30 19:54:00,
2013-03-30 13:55:00,51.6,16.0,30.09,West,274,0.0,4.9,24,0.00,,---,0.00,VWS V14.01,2013-03-30 19:55:00,
2013-03-30 13:56:00,51.6,16.0,30.09,West,274,2.7,4.9,24,0.00,,---,0.00,VWS V14.01,2013-03-30 19:56:00,
2013-03-30 13:57:00,51.8,15.2,30.09,NW,314,2.2,4.9,23,0.00,,---,0.00,VWS V14.01,2013-03-30 19:57:00,
2013-03-30 13:59:00,51.6,16.0,30.09,WNW,284,2.2,4.9,24,0.00,,---,0.00,VWS V14.01,2013-03-30 19:59:00,
2013-03-30 14:00:00,51.6,16.0,30.09,WSW,244,3.1,3.1,24,0.00,,---,0.00,VWS V14.01,2013-03-30 20:00:00,
2013-03-30 14:01:00,51.6,16.0,30.09,SSW,198,3.6,4.9,24,0.00,,---,0.00,VWS V14.01,2013-03-30 20:01:00,
2013-03-30 14:02:00,51.6,16.0,30.09,SSW,198,0.0,4.9,24,0.00,,---,0.00,VWS V14.01,2013-03-30 20:02:00,
2013-03-30 14:04:00,52.0,15.4,30.09,West,278,2.7,4.9,23,0.00,,---,0.00,VWS V14.01,2013-03-30 20:04:00,
2013-03-30 14:06:00,52.2,15.5,30.09,WNW,286,3.1,4.9,23,0.00,,---,0.00,VWS V14.01,2013-03-30 20:06:00,
2013-03-30 14:07:00,52.3,15.7,30.09,South,182,2.7,4.9,23,0.00,,---,0.00,VWS V14.01,2013-03-30 20:07:00,
2013-03-30 14:08:00,52.3,15.7,30.09,South,182,0.0,4.9,23,0.00,,---,0.00,VWS V14.01,2013-03-30 20:08:00,
2013-03-30 14:09:00,52.7,16.0,30.09,NW,324,3.6,4.9,23,0.00,,---,0.00,VWS V14.01,2013-03-30 20:09:00,
2013-03-30 14:11:00,53.4,16.6,30.09,North,357,3.1,4.9,23,0.00,,---,0.00,VWS V14.01,2013-03-30 20:11:00,
2013-03-30 14:12:00,54.0,17.0,30.09,NW,311,4.0,6.3,23,0.00,,---,0.00,VWS V14.01,2013-03-30 20:12:00,
2013-03-30 14:13:00,54.1,17.2,30.09,NW,311,5.4,6.3,23,0.00,,---,0.00,VWS V14.01,2013-03-30 20:13:00,
2013-03-30 14:14:00,54.1,17.2,30.09,North,353,3.6,6.3,23,0.00,,---,0.00,VWS V14.01,2013-03-30 20:14:00,
2013-03-30 14:16:00,54.1,14.0,30.09,NNW,345,4.9,5.8,20,0.00,,---,0.00,VWS V14.01,2013-03-30 20:16:00,
2013-03-30 14:17:00,54.1,14.0,30.09,NW,326,3.1,5.8,20,0.00,,---,0.00,VWS V14.01,2013-03-30 20:17:00,
2013-03-30 14:18:00,54.1,14.0,30.09,NW,322,3.1,5.8,20,0.00,,---,0.00,VWS V14.01,2013-03-30 20:18:00,
2013-03-30 14:19:00,54.1,14.0,30.09,NNE,17,5.4,5.8,20,0.00,,---,0.00,VWS V14.01,2013-03-30 20:19:00,
2013-03-30 14:21:00,53.6,13.5,30.09,NNW,336,4.9,5.8,20,0.00,,---,0.00,VWS V14.01,2013-03-30 20:21:00,
2013-03-30 14:23:00,53.2,14.3,30.09,North,353,5.4,6.3,21,0.00,,---,0.00,VWS V14.01,2013-03-30 20:23:00,
2013-03-30 14:24:00,52.7,13.9,30.09,NW,326,2.7,6.3,21,0.00,,---,0.00,VWS V14.01,2013-03-30 20:24:00,
2013-03-30 14:26:00,52.3,13.6,30.09,NE,51,2.7,6.3,21,0.00,,---,0.00,VWS V14.01,2013-03-30 20:26:00,
2013-03-30 14:28:00,52.2,13.4,30.09,WNW,292,3.1,6.3,21,0.00,,---,0.00,VWS V14.01,2013-03-30 20:28:00,
2013-03-30 14:30:00,52.0,13.3,30.09,West,277,3.1,6.3,21,0.00,,---,0.00,VWS V14.01,2013-03-30 20:30:00,
2013-03-30 14:31:00,52.0,13.3,30.09,WNW,282,2.7,4.9,21,0.00,,---,0.00,VWS V14.01,2013-03-30 20:31:00,
2013-03-30 14:33:00,52.2,13.4,30.09,WNW,299,3.1,4.9,21,0.00,,---,0.00,VWS V14.01,2013-03-30 20:33:00,
2013-03-30 14:35:00,52.3,13.6,30.09,WNW,299,2.2,4.9,21,0.00,,---,0.00,VWS V14.01,2013-03-30 20:35:00,
2013-03-30 14:37:00,52.5,13.7,30.09,SW,230,3.1,4.9,21,0.00,,---,0.00,VWS V14.01,2013-03-30 20:37:00,
2013-03-30 14:38:00,52.9,14.0,30.09,SW,220,0.0,4.9,21,0.00,,---,0.00,VWS V14.01,2013-03-30 20:38:00,
2013-03-30 14:40:00,52.9,14.0,30.09,West,276,2.2,4.9,21,0.00,,---,0.00,VWS V14.01,2013-03-30 20:40:00,
2013-03-30 14:42:00,52.9,14.0,30.09,NW,315,5.4,6.3,21,0.00,,---,0.00,VWS V14.01,2013-03-30 20:42:00,
2013-03-30 14:43:00,52.5,13.7,30.09,West,281,2.7,6.3,21,0.00,,---,0.00,VWS V14.01,2013-03-30 20:43:00,
2013-03-30 14:44:00,52.5,13.7,30.09,West,281,2.7,6.3,21,0.00,,---,0.00,VWS V14.01,2013-03-30 20:44:00,
2013-03-30 14:46:00,52.3,13.6,30.09,NNW,334,2.7,3.6,21,0.00,,---,0.00,VWS V14.01,2013-03-30 20:46:00,
2013-03-30 14:47:00,52.2,13.4,30.09,North,0,3.1,3.6,21,0.00,,---,0.00,VWS V14.01,2013-03-30 20:47:00,
2013-03-30 14:48:00,52.2,13.4,30.09,North,357,8.3,8.3,21,0.00,,---,0.00,VWS V14.01,2013-03-30 20:48:00,
2013-03-30 14:49:00,52.2,13.4,30.09,North,353,6.3,8.3,21,0.00,,---,0.00,VWS V14.01,2013-03-30 20:49:00,
2013-03-30 14:51:00,52.2,10.0,30.09,NNW,346,5.4,8.3,18,0.00,,---,0.00,VWS V14.01,2013-03-30 20:51:00,
2013-03-30 14:52:00,52.2,10.0,30.09,North,357,5.4,8.3,18,0.00,,---,0.00,VWS V14.01,2013-03-30 20:52:00,
2013-03-30 14:54:00,52.2,10.0,30.09,NNE,21,5.8,8.3,18,0.00,,---,0.00,VWS V14.01,2013-03-30 20:54:00,
2013-03-30 14:57:00,52.0,9.8,30.09,North,1,2.7,8.3,18,0.00,,---,0.00,VWS V14.01,2013-03-30 20:57:00,
2013-03-30 14:59:00,52.2,10.0,30.09,NNE,15,5.4,8.3,18,0.00,,---,0.00,VWS V14.01,2013-03-30 20:59:00,
2013-03-30 15:00:00,52.2,10.0,30.09,North,350,2.7,8.3,18,0.00,,---,0.00,VWS V14.01,2013-03-30 21:00:00,
2013-03-30 15:02:00,52.3,13.6,30.09,WNW,299,2.7,3.1,21,0.00,,---,0.00,VWS V14.01,2013-03-30 21:02:00,
2013-03-30 15:04:00,52.9,14.0,30.09,North,4,4.0,5.8,21,0.00,,---,0.00,VWS V14.01,2013-03-30 21:04:00,
2013-03-30 15:05:00,52.9,14.0,30.09,North,7,4.0,5.8,21,0.00,,---,0.00,VWS V14.01,2013-03-30 21:05:00,
2013-03-30 15:07:00,52.7,10.4,30.09,WSW,258,4.0,5.8,18,0.00,,---,0.00,VWS V14.01,2013-03-30 21:07:00,
2013-03-30 15:09:00,52.5,13.7,30.09,NNW,348,4.0,6.3,21,0.00,,---,0.00,VWS V14.01,2013-03-30 21:09:00,
2013-03-30 15:10:00,52.5,10.2,30.09,WNW,294,4.9,6.3,18,0.00,,---,0.00,VWS V14.01,2013-03-30 21:10:00,
2013-03-30 15:12:00,52.7,10.4,30.09,North,4,5.4,6.3,18,0.00,,---,0.00,VWS V14.01,2013-03-30 21:12:00,
2013-03-30 15:14:00,52.9,10.6,30.09,NNE,14,3.6,6.3,18,0.00,,---,0.00,VWS V14.01,2013-03-30 21:14:00,
2013-03-30 15:15:00,52.9,10.6,30.09,North,0,3.1,4.0,18,0.00,,---,0.00,VWS V14.01,2013-03-30 21:15:00,
2013-03-30 15:17:00,53.1,14.2,30.09,South,175,2.7,4.0,21,0.00,,---,0.00,VWS V14.01,2013-03-30 21:17:00,
2013-03-30 15:18:00,53.1,14.2,30.09,WNW,303,5.8,5.8,21,0.00,,---,0.00,VWS V14.01,2013-03-30 21:18:00,
2013-03-30 15:19:00,53.2,10.9,30.09,WNW,294,0.0,5.8,18,0.00,,---,0.00,VWS V14.01,2013-03-30 21:19:00,
2013-03-30 15:20:00,53.6,11.1,30.09,West,260,2.7,5.8,18,0.00,,---,0.00,VWS V14.01,2013-03-30 21:20:00,
2013-03-30 15:23:00,53.8,11.3,30.09,WSW,257,3.1,5.8,18,0.00,,---,0.00,VWS V14.01,2013-03-30 21:23:00,
2013-03-30 15:25:00,53.8,11.3,30.09,SW,214,3.1,5.8,18,0.00,,---,0.00,VWS V14.01,2013-03-30 21:25:00,
2013-03-30 15:28:00,54.0,11.4,30.09,North,2,7.6,8.7,18,0.00,,---,0.00,VWS V14.01,2013-03-30 21:28:00,
2013-03-30 15:30:00,54.1,11.6,30.06,NW,308,3.6,8.7,18,0.00,,---,0.00,VWS V14.01,2013-03-30 21:30:00,
2013-03-30 15:31:00,54.1,11.6,30.06,WNW,291,2.7,3.1,18,0.00,,---,0.00,VWS V14.01,2013-03-30 21:31:00,
2013-03-30 15:33:00,54.5,11.9,30.06,West,278,4.0,4.0,18,0.00,,---,0.00,VWS V14.01,2013-03-30 21:33:00,
2013-03-30 15:35:00,55.4,11.3,30.06,North,0,5.8,5.8,17,0.00,,---,0.00,VWS V14.01,2013-03-30 21:35:00,
2013-03-30 15:36:00,55.6,11.5,30.06,WNW,292,3.6,5.8,17,0.00,,---,0.00,VWS V14.01,2013-03-30 21:36:00,
2013-03-30 15:38:00,55.6,11.5,30.06,NNE,23,2.2,5.8,17,0.00,,---,0.00,VWS V14.01,2013-03-30 21:38:00,
2013-03-30 15:39:00,55.6,11.5,30.06,North,357,3.1,5.8,17,0.00,,---,0.00,VWS V14.01,2013-03-30 21:39:00,
2013-03-30 15:40:00,55.4,11.3,30.06,North,6,3.1,5.8,17,0.00,,---,0.00,VWS V14.01,2013-03-30 21:40:00,
2013-03-30 15:41:00,55.0,12.3,30.06,West,274,5.8,5.8,18,0.00,,---,0.00,VWS V14.01,2013-03-30 21:41:00,
2013-03-30 15:43:00,54.9,12.2,30.06,South,173,3.6,6.3,18,0.00,,---,0.00,VWS V14.01,2013-03-30 21:43:00,
2013-03-30 15:44:00,54.9,12.2,30.06,SSW,196,3.6,6.3,18,0.00,,---,0.00,VWS V14.01,2013-03-30 21:44:00,
2013-03-30 15:45:00,54.9,12.2,30.06,West,268,2.7,6.3,18,0.00,,---,0.00,VWS V14.01,2013-03-30 21:45:00,
2013-03-30 15:46:00,54.9,12.2,30.06,NW,321,2.7,4.9,18,0.00,,---,0.00,VWS V14.01,2013-03-30 21:46:00,
2013-03-30 15:48:00,54.7,12.0,30.06,NW,312,2.7,4.9,18,0.00,,---,0.00,VWS V14.01,2013-03-30 21:48:00,
2013-03-30 15:49:00,54.5,11.9,30.06,NW,317,2.7,4.9,18,0.00,,---,0.00,VWS V14.01,2013-03-30 21:49:00,
2013-03-30 15:50:00,54.3,11.7,30.06,WNW,290,2.7,4.9,18,0.00,,---,0.00,VWS V14.01,2013-03-30 21:50:00,
2013-03-30 15:51:00,54.1,11.6,30.06,North,357,3.1,4.9,18,0.00,,---,0.00,VWS V14.01,2013-03-30 21:51:00,
2013-03-30 15:53:00,54.0,11.4,30.06,North,0,3.1,4.9,18,0.00,,---,0.00,VWS V14.01,2013-03-30 21:53:00,
2013-03-30 15:54:00,54.0,11.4,30.06,NW,320,2.7,4.9,18,0.00,,---,0.00,VWS V14.01,2013-03-30 21:54:00,
2013-03-30 15:55:00,53.8,11.3,30.06,NW,313,0.0,4.9,18,0.00,,---,0.00,VWS V14.01,2013-03-30 21:55:00,
2013-03-30 15:57:00,53.8,11.3,30.06,NW,319,0.0,4.9,18,0.00,,---,0.00,VWS V14.01,2013-03-30 21:57:00,
2013-03-30 15:58:00,53.8,11.3,30.06,WNW,294,3.1,4.9,18,0.00,,---,0.00,VWS V14.01,2013-03-30 21:58:00,
2013-03-30 15:59:00,53.8,11.3,30.06,NNW,329,2.7,4.9,18,0.00,,---,0.00,VWS V14.01,2013-03-30 21:59:00,
2013-03-30 16:01:00,53.8,11.3,30.06,NW,313,3.6,3.6,18,0.00,,---,0.00,VWS V14.01,2013-03-30 22:01:00,
2013-03-30 16:02:00,53.6,11.1,30.06,West,277,3.6,3.6,18,0.00,,---,0.00,VWS V14.01,2013-03-30 22:02:00,
2013-03-30 16:03:00,53.6,11.1,30.06,West,277,2.7,4.9,18,0.00,,---,0.00,VWS V14.01,2013-03-30 22:03:00,
2013-03-30 16:04:00,53.6,11.1,30.06,West,277,2.7,4.9,18,0.00,,---,0.00,VWS V14.01,2013-03-30 22:04:00,
2013-03-30 16:06:00,53.8,11.3,30.06,WSW,243,3.6,4.9,18,0.00,,---,0.00,VWS V14.01,2013-03-30 22:06:00,
2013-03-30 16:07:00,54.0,11.4,30.06,West,259,0.0,4.9,18,0.00,,---,0.00,VWS V14.01,2013-03-30 22:07:00,
2013-03-30 16:08:00,54.1,11.6,30.06,West,274,2.7,4.9,18,0.00,,---,0.00,VWS V14.01,2013-03-30 22:08:00,
2013-03-30 16:09:00,54.3,11.7,30.06,NW,311,3.1,4.9,18,0.00,,---,0.00,VWS V14.01,2013-03-30 22:09:00,
2013-03-30 16:12:00,54.7,12.0,30.06,NW,316,2.7,4.9,18,0.00,,---,0.00,VWS V14.01,2013-03-30 22:12:00,
2013-03-30 16:14:00,54.9,12.2,30.06,North,350,4.0,5.8,18,0.00,,---,0.00,VWS V14.01,2013-03-30 22:14:00,
2013-03-30 16:15:00,54.9,12.2,30.06,NNW,346,2.7,5.8,18,0.00,,---,0.00,VWS V14.01,2013-03-30 22:15:00,
2013-03-30 16:17:00,54.7,12.0,30.06,NNW,331,3.1,5.8,18,0.00,,---,0.00,VWS V14.01,2013-03-30 22:17:00,
2013-03-30 16:19:00,54.5,11.9,30.06,North,353,3.6,6.3,18,0.00,,---,0.00,VWS V14.01,2013-03-30 22:19:00,
2013-03-30 16:20:00,54.5,11.9,30.06,NNW,335,4.0,6.3,18,0.00,,---,0.00,VWS V14.01,2013-03-30 22:20:00,
2013-03-30 16:22:00,54.1,11.6,30.06,NNE,22,4.0,6.3,18,0.00,,---,0.00,VWS V14.01,2013-03-30 22:22:00,
2013-03-30 16:23:00,54.1,7.5,30.06,North,9,5.4,6.3,15,0.00,,---,0.00,VWS V14.01,2013-03-30 22:23:00,
2013-03-30 16:24:00,54.0,7.4,30.06,NNW,348,4.0,6.3,15,0.00,,---,0.00,VWS V14.01,2013-03-30 22:24:00,
2013-03-30 16:25:00,53.8,11.3,30.06,North,357,3.6,6.3,18,0.00,,---,0.00,VWS V14.01,2013-03-30 22:25:00,
2013-03-30 16:27:00,53.8,7.2,30.06,North,357,3.6,6.3,15,0.00,,---,0.00,VWS V14.01,2013-03-30 22:27:00,
2013-03-30 16:28:00,53.8,7.2,30.06,North,353,6.7,6.7,15,0.00,,---,0.00,VWS V14.01,2013-03-30 22:28:00,
2013-03-30 16:29:00,53.8,7.2,30.06,North,357,3.1,6.7,15,0.00,,---,0.00,VWS V14.01,2013-03-30 22:29:00,
2013-03-30 16:30:00,53.8,7.2,30.06,North,357,2.2,2.2,15,0.00,,---,0.00,VWS V14.01,2013-03-30 22:30:00,
2013-03-30 16:32:00,54.0,7.4,30.06,WNW,298,3.6,4.0,15,0.00,,---,0.00,VWS V14.01,2013-03-30 22:32:00,
2013-03-30 16:33:00,54.1,11.6,30.06,WNW,287,3.1,4.0,18,0.00,,---,0.00,VWS V14.01,2013-03-30 22:33:00,
2013-03-30 16:35:00,54.5,7.8,30.06,NW,304,3.6,4.9,15,0.00,,---,0.00,VWS V14.01,2013-03-30 22:35:00,
2013-03-30 16:36:00,54.5,7.8,30.06,WNW,293,3.1,4.9,15,0.00,,---,0.00,VWS V14.01,2013-03-30 22:36:00,
2013-03-30 16:37:00,54.5,7.8,30.06,NNW,343,4.0,5.4,15,0.00,,---,0.00,VWS V14.01,2013-03-30 22:37:00,
2013-03-30 16:38:00,54.5,7.8,30.06,NNW,327,0.0,5.4,15,0.00,,---,0.00,VWS V14.01,2013-03-30 22:38:00,
2013-03-30 16:40:00,54.5,7.8,30.06,North,9,2.7,5.4,15,0.00,,---,0.00,VWS V14.01,2013-03-30 22:40:00,
2013-03-30 16:41:00,54.5,7.8,30.06,NNW,345,5.4,5.4,15,0.00,,---,0.00,VWS V14.01,2013-03-30 22:41:00,
2013-03-30 16:43:00,54.3,7.7,30.06,SW,220,0.0,5.4,15,0.00,,---,0.00,VWS V14.01,2013-03-30 22:43:00,
2013-03-30 16:45:00,54.1,7.5,30.06,NNW,330,5.8,5.8,15,0.00,,---,0.00,VWS V14.01,2013-03-30 22:45:00,
2013-03-30 16:46:00,54.1,7.5,30.06,North,0,4.0,5.8,15,0.00,,---,0.00,VWS V14.01,2013-03-30 22:46:00,
2013-03-30 16:48:00,54.0,7.4,30.06,North,1,3.1,8.3,15,0.00,,---,0.00,VWS V14.01,2013-03-30 22:48:00,
2013-03-30 16:50:00,53.8,11.3,30.06,North,357,0.0,8.3,18,0.00,,---,0.00,VWS V14.01,2013-03-30 22:50:00,
2013-03-30 16:52:00,53.8,11.3,30.06,North,6,2.7,8.3,18,0.00,,---,0.00,VWS V14.01,2013-03-30 22:52:00,
2013-03-30 16:53:00,54.0,11.4,30.06,North,3,2.2,8.3,18,0.00,,---,0.00,VWS V14.01,2013-03-30 22:53:00,
2013-03-30 16:55:00,54.1,7.5,30.06,NNW,341,2.7,8.3,15,0.00,,---,0.00,VWS V14.01,2013-03-30 22:55:00,
2013-03-30 16:57:00,54.1,11.6,30.06,NW,326,4.0,8.3,18,0.00,,---,0.00,VWS V14.01,2013-03-30 22:57:00,
2013-03-30 16:58:00,54.3,7.7,30.06,West,274,3.1,8.3,15,0.00,,---,0.00,VWS V14.01,2013-03-30 22:58:00,
2013-03-30 16:59:00,54.3,7.7,30.06,West,271,3.1,8.3,15,0.00,,---,0.00,VWS V14.01,2013-03-30 22:59:00,
2013-03-30 17:00:00,54.3,7.7,30.06,West,279,4.0,4.0,15,0.00,,---,0.00,VWS V14.01,2013-03-30 23:00:00,
2013-03-30 17:02:00,54.3,7.7,30.06,SSW,202,5.8,5.8,15,0.00,,---,0.00,VWS V14.01,2013-03-30 23:02:00,
2013-03-30 17:04:00,54.1,7.5,30.06,SSW,204,2.7,5.8,15,0.00,,---,0.00,VWS V14.01,2013-03-30 23:04:00,
2013-03-30 17:05:00,54.1,7.5,30.06,SSW,204,5.4,5.8,15,0.00,,---,0.00,VWS V14.01,2013-03-30 23:05:00,
2013-03-30 17:07:00,54.0,11.4,30.06,WSW,252,2.7,5.8,18,0.00,,---,0.00,VWS V14.01,2013-03-30 23:07:00,
2013-03-30 17:09:00,54.1,7.5,30.06,NW,304,4.0,5.8,15,0.00,,---,0.00,VWS V14.01,2013-03-30 23:09:00,
2013-03-30 17:10:00,54.1,7.5,30.06,South,185,2.7,5.8,15,0.00,,---,0.00,VWS V14.01,2013-03-30 23:10:00,
2013-03-30 17:13:00,54.3,7.7,30.06,SSW,203,3.6,5.8,15,0.00,,---,0.00,VWS V14.01,2013-03-30 23:13:00,
2013-03-30 17:14:00,54.3,7.7,30.06,SW,216,4.0,5.8,15,0.00,,---,0.00,VWS V14.01,2013-03-30 23:14:00,
2013-03-30 17:16:00,54.3,11.7,30.06,SW,227,2.7,3.6,18,0.00,,---,0.00,VWS V14.01,2013-03-30 23:16:00,
2013-03-30 17:18:00,54.5,7.8,30.06,WNW,303,3.1,5.8,15,0.00,,---,0.00,VWS V14.01,2013-03-30 23:18:00,
2013-03-30 17:19:00,54.7,8.0,30.06,NW,311,2.7,5.8,15,0.00,,---,0.00,VWS V14.01,2013-03-30 23:19:00,
2013-03-30 17:21:00,54.9,8.1,30.06,WNW,297,3.6,5.8,15,0.00,,---,0.00,VWS V14.01,2013-03-30 23:21:00,
2013-03-30 17:23:00,55.0,8.2,30.06,SW,236,4.0,5.8,15,0.00,,---,0.00,VWS V14.01,2013-03-30 23:23:00,
2013-03-30 17:24:00,55.0,8.2,30.06,West,274,4.0,5.8,15,0.00,,---,0.00,VWS V14.01,2013-03-30 23:24:00,
2013-03-30 17:26:00,55.2,8.4,30.06,WNW,288,2.7,5.8,15,0.00,,---,0.00,VWS V14.01,2013-03-30 23:26:00,
2013-03-30 17:28:00,55.2,8.4,30.06,West,274,2.2,5.8,15,0.00,,---,0.00,VWS V14.01,2013-03-30 23:28:00,
2013-03-30 17:29:00,55.2,8.4,30.06,NNW,327,3.1,5.8,15,0.00,,---,0.00,VWS V14.01,2013-03-30 23:29:00,
2013-03-30 17:31:00,55.4,8.5,30.03,WNW,294,2.7,6.3,15,0.00,,---,0.00,VWS V14.01,2013-03-30 23:31:00,
2013-03-30 17:33:00,55.4,8.5,30.03,West,281,0.0,6.3,15,0.00,,---,0.00,VWS V14.01,2013-03-30 23:33:00,
2013-03-30 17:34:00,55.4,8.5,30.03,WNW,286,2.7,6.3,15,0.00,,---,0.00,VWS V14.01,2013-03-30 23:34:00,
2013-03-30 17:37:00,55.4,8.5,30.03,West,281,2.7,6.3,15,0.00,,---,0.00,VWS V14.01,2013-03-30 23:37:00,
2013-03-30 17:39:00,55.4,8.5,30.03,NW,306,2.7,6.3,15,0.00,,---,0.00,VWS V14.01,2013-03-30 23:39:00,
2013-03-30 17:42:00,55.4,8.5,30.03,SSW,210,2.2,6.3,15,0.00,,---,0.00,VWS V14.01,2013-03-30 23:42:00,
2013-03-30 17:44:00,55.4,8.5,30.03,WSW,243,3.1,6.3,15,0.00,,---,0.00,VWS V14.01,2013-03-30 23:44:00,
2013-03-30 17:45:00,55.4,8.5,30.03,WNW,283,4.0,6.3,15,0.00,,---,0.00,VWS V14.01,2013-03-30 23:45:00,
2013-03-30 17:47:00,55.4,8.5,30.03,West,281,0.0,4.0,15,0.00,,---,0.00,VWS V14.01,2013-03-30 23:47:00,
2013-03-30 17:49:00,55.4,8.5,30.03,North,353,3.1,4.0,15,0.00,,---,0.00,VWS V14.01,2013-03-30 23:49:00,
2013-03-30 17:50:00,55.4,8.5,30.03,SSW,202,3.6,4.0,15,0.00,,---,0.00,VWS V14.01,2013-03-30 23:50:00,
2013-03-30 17:52:00,55.0,8.2,30.03,WNW,293,4.0,4.9,15,0.00,,---,0.00,VWS V14.01,2013-03-30 23:52:00,
2013-03-30 17:54:00,55.0,8.2,30.03,SSW,204,4.0,4.9,15,0.00,,---,0.00,VWS V14.01,2013-03-30 23:54:00,
2013-03-30 17:55:00,55.0,8.2,30.03,WSW,244,4.9,4.9,15,0.00,,---,0.00,VWS V14.01,2013-03-30 23:55:00,
2013-03-30 17:58:00,54.7,8.0,30.03,WSW,244,4.0,4.9,15,0.00,,---,0.00,VWS V14.01,2013-03-30 23:58:00,
2013-03-30 17:59:00,54.5,7.8,30.03,SSW,213,4.0,5.8,15,0.00,,---,0.00,VWS V14.01,2013-03-30 23:59:00,
2013-03-30 18:00:00,54.5,7.8,30.03,SSW,205,4.0,5.4,15,0.00,,---,0.00,VWS V14.01,2013-03-31 00:00:00,
2013-03-30 18:03:00,54.3,7.7,30.03,West,275,0.0,6.3,15,0.00,,---,0.00,VWS V14.01,2013-03-31 00:03:00,
2013-03-30 18:04:00,54.3,7.7,30.03,West,275,2.7,6.3,15,0.00,,---,0.00,VWS V14.01,2013-03-31 00:04:00,
2013-03-30 18:05:00,54.3,7.7,30.03,WSW,240,2.2,6.3,15,0.00,,---,0.00,VWS V14.01,2013-03-31 00:05:00,
2013-03-30 18:08:00,54.3,7.7,30.03,West,276,4.0,6.3,15,0.00,,---,0.00,VWS V14.01,2013-03-31 00:08:00,
2013-03-30 18:09:00,54.5,7.8,30.03,WSW,252,2.7,6.3,15,0.00,,---,0.00,VWS V14.01,2013-03-31 00:09:00,
2013-03-30 18:10:00,54.7,8.0,30.03,WNW,292,3.6,6.3,15,0.00,,---,0.00,VWS V14.01,2013-03-31 00:10:00,
2013-03-30 18:13:00,55.0,8.2,30.03,WNW,287,3.6,6.3,15,0.00,,---,0.00,VWS V14.01,2013-03-31 00:13:00,
2013-03-30 18:14:00,55.2,8.4,30.03,West,280,6.7,6.7,15,0.00,,---,0.00,VWS V14.01,2013-03-31 00:14:00,
2013-03-30 18:15:00,55.4,8.5,30.03,WSW,246,2.2,4.0,15,0.00,,---,0.00,VWS V14.01,2013-03-31 00:15:00,
2013-03-30 18:18:00,55.4,8.5,30.03,SW,221,2.2,4.0,15,0.00,,---,0.00,VWS V14.01,2013-03-31 00:18:00,
2013-03-30 18:19:00,55.4,8.5,30.03,WSW,252,3.1,4.0,15,0.00,,---,0.00,VWS V14.01,2013-03-31 00:19:00,
2013-03-30 18:20:00,55.4,8.5,30.03,WSW,240,2.7,4.0,15,0.00,,---,0.00,VWS V14.01,2013-03-31 00:20:00,
2013-03-30 18:21:00,55.4,8.5,30.03,WSW,240,2.7,4.0,15,0.00,,---,0.00,VWS V14.01,2013-03-31 00:21:00,
2013-03-30 18:23:00,55.2,8.4,30.03,SSW,197,2.2,4.9,15,0.00,,---,0.00,VWS V14.01,2013-03-31 00:23:00,
2013-03-30 18:25:00,55.2,8.4,30.03,SSW,197,2.2,4.9,15,0.00,,---,0.00,VWS V14.01,2013-03-31 00:25:00,
2013-03-30 18:26:00,55.2,8.4,30.03,SW,216,3.6,4.9,15,0.00,,---,0.00,VWS V14.01,2013-03-31 00:26:00,
2013-03-30 18:29:00,55.2,8.4,30.03,WSW,252,2.7,4.9,15,0.00,,---,0.00,VWS V14.01,2013-03-31 00:29:00,
2013-03-30 18:30:00,55.0,8.2,30.03,WSW,252,0.0,4.9,15,0.00,,---,0.00,VWS V14.01,2013-03-31 00:30:00,
2013-03-30 18:31:00,55.0,8.2,30.03,NW,315,2.2,3.1,15,0.00,,---,0.00,VWS V14.01,2013-03-31 00:31:00,
2013-03-30 18:34:00,54.3,7.7,30.03,NNW,341,3.1,4.0,15,0.00,,---,0.00,VWS V14.01,2013-03-31 00:34:00,
2013-03-30 18:35:00,54.3,7.7,30.03,NW,325,3.1,4.0,15,0.00,,---,0.00,VWS V14.01,2013-03-31 00:35:00,
2013-03-30 18:36:00,54.1,7.5,30.03,NNW,341,4.0,4.0,15,0.00,,---,0.00,VWS V14.01,2013-03-31 00:36:00,
2013-03-30 18:37:00,54.0,7.4,30.03,North,357,2.7,4.0,15,0.00,,---,0.00,VWS V14.01,2013-03-31 00:37:00,
2013-03-30 18:39:00,53.6,7.1,30.03,NW,310,3.6,4.0,15,0.00,,---,0.00,VWS V14.01,2013-03-31 00:39:00,
2013-03-30 18:40:00,53.4,8.4,30.03,NW,310,3.1,4.0,16,0.00,,---,0.00,VWS V14.01,2013-03-31 00:40:00,
2013-03-30 18:41:00,53.4,8.4,30.03,NNW,334,2.7,4.0,16,0.00,,---,0.00,VWS V14.01,2013-03-31 00:41:00,
2013-03-30 18:42:00,53.4,8.4,30.03,NW,305,4.0,4.0,16,0.00,,---,0.00,VWS V14.01,2013-03-31 00:42:00,
2013-03-30 18:44:00,53.2,8.2,30.03,North,353,0.0,4.0,16,0.00,,---,0.00,VWS V14.01,2013-03-31 00:44:00,
2013-03-30 18:45:00,53.1,8.1,30.03,NW,311,2.7,3.1,16,0.00,,---,0.00,VWS V14.01,2013-03-31 00:45:00,
2013-03-30 18:46:00,53.1,8.1,30.03,NW,313,2.7,3.1,16,0.00,,---,0.00,VWS V14.01,2013-03-31 00:46:00,
2013-03-30 18:47:00,53.1,8.1,30.03,NW,312,2.7,3.1,16,0.00,,---,0.00,VWS V14.01,2013-03-31 00:47:00,
2013-03-30 18:49:00,52.9,7.9,30.03,NW,317,2.2,3.1,16,0.00,,---,0.00,VWS V14.01,2013-03-31 00:49:00,
2013-03-30 18:51:00,52.7,7.8,30.03,NW,314,2.7,3.1,16,0.00,,---,0.00,VWS V14.01,2013-03-31 00:51:00,
2013-03-30 18:52:00,52.5,7.6,30.03,NW,314,0.0,3.1,16,0.00,,---,0.00,VWS V14.01,2013-03-31 00:52:00,
2013-03-30 18:55:00,52.5,7.6,30.03,NNW,337,0.0,3.1,16,0.00,,---,0.00,VWS V14.01,2013-03-31 00:55:00,
2013-03-30 18:56:00,52.3,7.5,30.03,NNW,327,2.2,3.1,16,0.00,,---,0.00,VWS V14.01,2013-03-31 00:56:00,
2013-03-30 18:57:00,52.3,7.5,30.03,NNW,330,2.2,3.1,16,0.00,,---,0.00,VWS V14.01,2013-03-31 00:57:00,
2013-03-30 18:58:00,52.2,7.3,30.03,NNW,336,2.2,3.1,16,0.00,,---,0.00,VWS V14.01,2013-03-31 00:58:00,
2013-03-30 19:00:00,52.0,7.2,30.03,NNW,336,0.0,0.0,16,0.00,,---,0.00,VWS V14.01,2013-03-31 01:00:00,
2013-03-30 19:01:00,52.0,7.2,30.03,NNW,336,2.7,2.7,16,0.00,,---,0.00,VWS V14.01,2013-03-31 01:01:00,
2013-03-30 19:02:00,51.8,7.1,30.03,NNW,337,2.2,2.7,16,0.00,,---,0.00,VWS V14.01,2013-03-31 01:02:00,
2013-03-30 19:03:00,51.8,7.1,30.03,NNW,334,2.7,2.7,16,0.00,,---,0.00,VWS V14.01,2013-03-31 01:03:00,
2013-03-30 19:06:00,51.6,6.9,30.03,NW,316,2.2,3.1,16,0.00,,---,0.00,VWS V14.01,2013-03-31 01:06:00,
2013-03-30 19:07:00,51.6,6.9,30.03,NW,317,0.0,3.1,16,0.00,,---,0.00,VWS V14.01,2013-03-31 01:07:00,
2013-03-30 19:08:00,51.6,6.9,30.03,NW,317,0.0,3.1,16,0.00,,---,0.00,VWS V14.01,2013-03-31 01:08:00,
2013-03-30 19:11:00,51.4,6.8,30.03,NW,315,2.2,3.1,16,0.00,,---,0.00,VWS V14.01,2013-03-31 01:11:00,
2013-03-30 19:12:00,51.4,6.8,30.03,West,280,0.0,3.1,16,0.00,,---,0.00,VWS V14.01,2013-03-31 01:12:00,
2013-03-30 19:13:00,51.4,6.8,30.03,West,280,0.0,3.1,16,0.00,,---,0.00,VWS V14.01,2013-03-31 01:13:00,
2013-03-30 19:16:00,51.1,6.5,30.06,West,280,0.0,0.0,16,0.00,,---,0.00,VWS V14.01,2013-03-31 01:16:00,
2013-03-30 19:18:00,51.1,6.5,30.06,West,280,0.0,0.0,16,0.00,,---,0.00,VWS V14.01,2013-03-31 01:18:00,
2013-03-30 19:21:00,50.5,6.0,30.06,West,280,0.0,0.0,16,0.00,,---,0.00,VWS V14.01,2013-03-31 01:21:00,
2013-03-30 19:23:00,50.2,5.7,30.06,West,280,0.0,0.0,16,0.00,,---,0.00,VWS V14.01,2013-03-31 01:23:00,
2013-03-30 19:27:00,49.8,5.4,30.06,West,280,0.0,0.0,16,0.00,,---,0.00,VWS V14.01,2013-03-31 01:27:00,
2013-03-30 19:28:00,49.6,5.3,30.06,West,280,0.0,0.0,16,0.00,,---,0.00,VWS V14.01,2013-03-31 01:28:00,
2013-03-30 19:32:00,49.1,4.9,30.06,West,280,0.0,0.0,16,0.00,,---,0.00,VWS V14.01,2013-03-31 01:32:00,
2013-03-30 19:33:00,49.1,4.9,30.06,West,280,0.0,0.0,16,0.00,,---,0.00,VWS V14.01,2013-03-31 01:33:00,
2013-03-30 19:34:00,49.1,4.9,30.06,West,280,0.0,0.0,16,0.00,,---,0.00,VWS V14.01,2013-03-31 01:34:00,
2013-03-30 19:37:00,48.7,4.6,30.06,West,280,0.0,0.0,16,0.00,,---,0.00,VWS V14.01,2013-03-31 01:37:00,
2013-03-30 19:38:00,48.6,4.4,30.06,West,280,0.0,0.0,16,0.00,,---,0.00,VWS V14.01,2013-03-31 01:38:00,
2013-03-30 19:39:00,48.4,4.3,30.06,West,280,0.0,0.0,16,0.00,,---,0.00,VWS V14.01,2013-03-31 01:39:00,
2013-03-30 19:42:00,48.0,5.3,30.06,West,280,0.0,0.0,17,0.00,,---,0.00,VWS V14.01,2013-03-31 01:42:00,
2013-03-30 19:44:00,47.8,5.2,30.06,West,280,0.0,0.0,17,0.00,,---,0.00,VWS V14.01,2013-03-31 01:44:00,
2013-03-30 19:47:00,47.5,7.3,30.06,West,280,0.0,0.0,19,0.00,,---,0.00,VWS V14.01,2013-03-31 01:47:00,
2013-03-30 19:49:00,47.3,7.1,30.06,West,280,0.0,0.0,19,0.00,,---,0.00,VWS V14.01,2013-03-31 01:49:00,
2013-03-30 19:50:00,47.3,7.1,30.06,West,280,0.0,0.0,19,0.00,,---,0.00,VWS V14.01,2013-03-31 01:50:00,
2013-03-30 19:52:00,46.9,6.8,30.06,West,280,0.0,0.0,19,0.00,,---,0.00,VWS V14.01,2013-03-31 01:52:00,
2013-03-30 19:54:00,46.8,6.7,30.06,West,280,0.0,0.0,19,0.00,,---,0.00,VWS V14.01,2013-03-31 01:54:00,
2013-03-30 19:55:00,46.8,6.7,30.06,West,280,0.0,0.0,19,0.00,,---,0.00,VWS V14.01,2013-03-31 01:55:00,
2013-03-30 19:58:00,46.4,6.4,30.06,West,280,0.0,0.0,19,0.00,,---,0.00,VWS V14.01,2013-03-31 01:58:00,
2013-03-30 19:59:00,46.4,6.4,30.06,West,280,0.0,0.0,19,0.00,,---,0.00,VWS V14.01,2013-03-31 01:59:00,
2013-03-30 20:00:00,46.4,6.4,30.06,West,280,0.0,0.0,19,0.00,,---,0.00,VWS V14.01,2013-03-31 02:00:00,
2013-03-30 20:03:00,46.0,7.2,30.06,West,280,0.0,0.0,20,0.00,,---,0.00,VWS V14.01,2013-03-31 02:03:00,
2013-03-30 20:04:00,46.0,7.2,30.06,West,280,0.0,0.0,20,0.00,,---,0.00,VWS V14.01,2013-03-31 02:04:00,
2013-03-30 20:05:00,46.0,7.2,30.06,West,280,0.0,0.0,20,0.00,,---,0.00,VWS V14.01,2013-03-31 02:05:00,
2013-03-30 20:08:00,45.9,7.1,30.06,West,280,0.0,0.0,20,0.00,,---,0.00,VWS V14.01,2013-03-31 02:08:00,
2013-03-30 20:09:00,45.9,7.1,30.06,West,280,0.0,0.0,20,0.00,,---,0.00,VWS V14.01,2013-03-31 02:09:00,
2013-03-30 20:10:00,45.9,7.1,30.06,West,280,0.0,0.0,20,0.00,,---,0.00,VWS V14.01,2013-03-31 02:10:00,
2013-03-30 20:14:00,45.7,6.9,30.06,West,280,0.0,2.2,20,0.00,,---,0.00,VWS V14.01,2013-03-31 02:14:00,
2013-03-30 20:15:00,45.5,6.8,30.06,West,280,0.0,0.0,20,0.00,,---,0.00,VWS V14.01,2013-03-31 02:15:00,
2013-03-30 20:16:00,45.5,6.8,30.06,West,280,0.0,0.0,20,0.00,,---,0.00,VWS V14.01,2013-03-31 02:16:00,
2013-03-30 20:19:00,45.3,6.6,30.06,West,278,0.0,0.0,20,0.00,,---,0.00,VWS V14.01,2013-03-31 02:19:00,
2013-03-30 20:20:00,45.1,6.5,30.06,West,278,0.0,0.0,20,0.00,,---,0.00,VWS V14.01,2013-03-31 02:20:00,
2013-03-30 20:21:00,45.1,6.5,30.06,West,278,0.0,0.0,20,0.00,,---,0.00,VWS V14.01,2013-03-31 02:21:00,
2013-03-30 20:24:00,44.6,6.0,30.06,West,278,0.0,0.0,20,0.00,,---,0.00,VWS V14.01,2013-03-31 02:24:00,
2013-03-30 20:25:00,44.6,6.0,30.06,West,278,0.0,0.0,20,0.00,,---,0.00,VWS V14.01,2013-03-31 02:25:00,
2013-03-30 20:27:00,44.2,5.7,30.06,West,276,0.0,0.0,20,0.00,,---,0.00,VWS V14.01,2013-03-31 02:27:00,
2013-03-30 20:30:00,44.1,5.6,30.06,West,276,0.0,0.0,20,0.00,,---,0.00,VWS V14.01,2013-03-31 02:30:00,
2013-03-30 20:31:00,43.9,5.4,30.06,West,276,0.0,0.0,20,0.00,,---,0.00,VWS V14.01,2013-03-31 02:31:00,
2013-03-30 20:32:00,43.7,8.3,30.06,West,276,0.0,0.0,23,0.00,,---,0.00,VWS V14.01,2013-03-31 02:32:00,
2013-03-30 20:35:00,43.3,8.0,30.06,West,276,0.0,0.0,23,0.00,,---,0.00,VWS V14.01,2013-03-31 02:35:00,
2013-03-30 20:36:00,43.3,8.0,30.06,West,275,0.0,0.0,23,0.00,,---,0.00,VWS V14.01,2013-03-31 02:36:00,
2013-03-30 20:37:00,43.0,7.7,30.06,WSW,246,0.0,2.7,23,0.00,,---,0.00,VWS V14.01,2013-03-31 02:37:00,
2013-03-30 20:40:00,42.8,7.6,30.06,WSW,241,0.0,2.7,23,0.00,,---,0.00,VWS V14.01,2013-03-31 02:40:00,
2013-03-30 20:41:00,42.8,7.6,30.06,SW,231,0.0,2.7,23,0.00,,---,0.00,VWS V14.01,2013-03-31 02:41:00,
2013-03-30 20:42:00,42.6,7.4,30.06,SSW,208,2.2,2.7,23,0.00,,---,0.00,VWS V14.01,2013-03-31 02:42:00,
2013-03-30 20:45:00,42.4,10.0,30.06,SSW,200,3.1,3.1,26,0.00,,---,0.00,VWS V14.01,2013-03-31 02:45:00,
2013-03-30 20:46:00,42.4,10.0,30.06,South,171,3.1,3.1,26,0.00,,---,0.00,VWS V14.01,2013-03-31 02:46:00,
2013-03-30 20:47:00,42.4,10.0,30.06,South,189,3.6,3.6,26,0.00,,---,0.00,VWS V14.01,2013-03-31 02:47:00,
2013-03-30 20:50:00,42.6,10.1,30.06,South,189,3.1,4.0,26,0.00,,---,0.00,VWS V14.01,2013-03-31 02:50:00,
2013-03-30 20:51:00,42.6,10.1,30.06,South,182,3.1,4.0,26,0.00,,---,0.00,VWS V14.01,2013-03-31 02:51:00,
2013-03-30 20:52:00,42.6,10.1,30.06,South,182,2.7,4.0,26,0.00,,---,0.00,VWS V14.01,2013-03-31 02:52:00,
2013-03-30 20:55:00,42.8,9.4,30.06,SSE,168,0.0,4.0,25,0.00,,---,0.00,VWS V14.01,2013-03-31 02:55:00,
2013-03-30 20:56:00,42.8,9.4,30.06,South,176,2.7,4.0,25,0.00,,---,0.00,VWS V14.01,2013-03-31 02:56:00,
2013-03-30 20:57:00,42.8,9.4,30.06,South,176,2.7,4.0,25,0.00,,---,0.00,VWS V14.01,2013-03-31 02:57:00,
2013-03-30 21:00:00,42.8,9.4,30.06,SSW,193,4.0,4.0,25,0.00,,---,0.00,VWS V14.01,2013-03-31 03:00:00,
2013-03-30 21:02:00,42.8,12.0,30.06,SSW,193,2.7,4.0,28,0.00,,---,0.00,VWS V14.01,2013-03-31 03:02:00,
2013-03-30 21:03:00,42.8,12.0,30.06,SSW,193,0.0,4.0,28,0.00,,---,0.00,VWS V14.01,2013-03-31 03:03:00,
2013-03-30 21:06:00,42.6,11.8,30.06,SSE,168,2.7,4.0,28,0.00,,---,0.00,VWS V14.01,2013-03-31 03:06:00,
2013-03-30 21:07:00,42.4,11.7,30.06,South,190,2.7,4.0,28,0.00,,---,0.00,VWS V14.01,2013-03-31 03:07:00,
2013-03-30 21:08:00,42.4,11.7,30.06,South,189,3.6,4.0,28,0.00,,---,0.00,VWS V14.01,2013-03-31 03:08:00,
2013-03-30 21:11:00,42.3,11.5,30.06,South,190,2.2,4.0,28,0.00,,---,0.00,VWS V14.01,2013-03-31 03:11:00,
2013-03-30 21:12:00,42.1,11.3,30.06,South,185,2.7,4.0,28,0.00,,---,0.00,VWS V14.01,2013-03-31 03:12:00,
2013-03-30 21:13:00,42.1,11.3,30.06,South,187,3.6,4.0,28,0.00,,---,0.00,VWS V14.01,2013-03-31 03:13:00,
2013-03-30 21:16:00,41.9,11.2,30.06,SSW,195,3.1,3.6,28,0.00,,---,0.00,VWS V14.01,2013-03-31 03:16:00,
2013-03-30 21:17:00,41.9,11.2,30.06,SSW,193,3.6,3.6,28,0.00,,---,0.00,VWS V14.01,2013-03-31 03:17:00,
2013-03-30 21:18:00,41.9,11.2,30.06,SSW,195,3.1,5.4,28,0.00,,---,0.00,VWS V14.01,2013-03-31 03:18:00,
2013-03-30 21:21:00,41.7,11.0,30.06,SSW,196,4.0,5.4,28,0.00,,---,0.00,VWS V14.01,2013-03-31 03:21:00,
2013-03-30 21:22:00,41.7,11.0,30.06,SSW,198,3.6,5.4,28,0.00,,---,0.00,VWS V14.01,2013-03-31 03:22:00,
2013-03-30 21:23:00,41.7,11.0,30.06,SSW,198,3.6,5.4,28,0.00,,---,0.00,VWS V14.01,2013-03-31 03:23:00,
2013-03-30 21:26:00,41.5,10.9,30.06,South,182,3.6,5.4,28,0.00,,---,0.00,VWS V14.01,2013-03-31 03:26:00,
2013-03-30 21:27:00,41.2,10.6,30.06,South,183,2.7,5.4,28,0.00,,---,0.00,VWS V14.01,2013-03-31 03:27:00,
2013-03-30 21:28:00,41.2,10.6,30.06,South,190,3.1,5.4,28,0.00,,---,0.00,VWS V14.01,2013-03-31 03:28:00,
2013-03-30 21:31:00,41.0,10.4,30.06,South,190,2.2,3.1,28,0.00,,---,0.00,VWS V14.01,2013-03-31 03:31:00,
2013-03-30 21:33:00,40.8,11.0,30.06,South,190,2.7,3.1,29,0.00,,---,0.00,VWS V14.01,2013-03-31 03:33:00,
2013-03-30 21:34:00,40.8,11.0,30.06,South,189,2.2,3.1,29,0.00,,---,0.00,VWS V14.01,2013-03-31 03:34:00,
2013-03-30 21:37:00,40.6,10.9,30.06,South,189,2.2,3.1,29,0.00,,---,0.00,VWS V14.01,2013-03-31 03:37:00,
2013-03-30 21:38:00,40.6,10.9,30.06,South,189,0.0,3.1,29,0.00,,---,0.00,VWS V14.01,2013-03-31 03:38:00,
2013-03-30 21:39:00,40.5,10.7,30.06,South,187,2.2,3.1,29,0.00,,---,0.00,VWS V14.01,2013-03-31 03:39:00,
2013-03-30 21:42:00,40.3,10.6,30.06,SSW,192,2.7,4.0,29,0.00,,---,0.00,VWS V14.01,2013-03-31 03:42:00,
2013-03-30 21:43:00,40.3,10.6,30.06,SSW,192,3.1,4.0,29,0.00,,---,0.00,VWS V14.01,2013-03-31 03:43:00,
2013-03-30 21:44:00,40.3,10.6,30.06,SSW,192,2.7,4.0,29,0.00,,---,0.00,VWS V14.01,2013-03-31 03:44:00,
2013-03-30 21:48:00,40.1,10.4,30.06,SSW,192,0.0,2.7,29,0.00,,---,0.00,VWS V14.01,2013-03-31 03:48:00,
2013-03-30 21:49:00,40.1,10.4,30.06,SSW,192,0.0,2.7,29,0.00,,---,0.00,VWS V14.01,2013-03-31 03:49:00,
2013-03-30 21:53:00,39.9,11.0,30.06,South,189,2.2,3.1,30,0.00,,---,0.00,VWS V14.01,2013-03-31 03:53:00,
2013-03-30 21:54:00,39.9,11.0,30.06,South,188,2.7,3.1,30,0.00,,---,0.00,VWS V14.01,2013-03-31 03:54:00,
2013-03-30 21:58:00,39.7,10.9,30.06,South,187,2.7,3.1,30,0.00,,---,0.00,VWS V14.01,2013-03-31 03:58:00,
2013-03-30 21:59:00,39.7,10.9,30.06,South,187,2.7,3.1,30,0.00,,---,0.00,VWS V14.01,2013-03-31 03:59:00,
2013-03-30 22:00:00,39.7,10.9,30.06,South,187,2.2,3.1,30,0.00,,---,0.00,VWS V14.01,2013-03-31 04:00:00,
2013-03-30 22:05:00,39.7,10.9,30.06,South,188,3.6,3.6,30,0.00,,---,0.00,VWS V14.01,2013-03-31 04:05:00,
2013-03-30 22:10:00,40.1,11.2,30.06,South,190,3.6,4.0,30,0.00,,---,0.00,VWS V14.01,2013-03-31 04:10:00,
2013-03-30 22:15:00,40.5,11.5,30.06,South,188,3.1,3.1,30,0.00,,---,0.00,VWS V14.01,2013-03-31 04:15:00,
2013-03-30 22:16:00,40.5,11.5,30.06,South,189,4.0,4.0,30,0.00,,---,0.00,VWS V14.01,2013-03-31 04:16:00,
2013-03-30 22:20:00,40.5,11.5,30.06,SSW,197,3.6,4.0,30,0.00,,---,0.00,VWS V14.01,2013-03-31 04:20:00,
2013-03-30 22:21:00,40.5,11.5,30.06,SSW,197,5.4,5.4,30,0.00,,---,0.00,VWS V14.01,2013-03-31 04:21:00,
2013-03-30 22:25:00,40.3,11.3,30.06,SSW,200,3.6,5.4,30,0.00,,---,0.00,VWS V14.01,2013-03-31 04:25:00,
2013-03-30 22:27:00,40.3,11.3,30.06,SSW,195,4.0,5.8,30,0.00,,---,0.00,VWS V14.01,2013-03-31 04:27:00,
2013-03-30 22:30:00,40.3,11.3,30.06,SSW,196,4.0,4.0,30,0.00,,---,0.00,VWS V14.01,2013-03-31 04:30:00,
2013-03-30 22:31:00,40.3,11.3,30.06,SSW,196,4.0,4.0,30,0.00,,---,0.00,VWS V14.01,2013-03-31 04:31:00,
2013-03-30 22:33:00,40.3,11.3,30.06,SSW,198,3.6,4.9,30,0.00,,---,0.00,VWS V14.01,2013-03-31 04:33:00,
2013-03-30 22:35:00,40.3,11.3,30.06,SSW,198,3.1,4.9,30,0.00,,---,0.00,VWS V14.01,2013-03-31 04:35:00,
2013-03-30 22:36:00,40.3,11.3,30.06,SSW,198,3.6,4.9,30,0.00,,---,0.00,VWS V14.01,2013-03-31 04:36:00,
2013-03-30 22:38:00,40.3,11.3,30.06,SSW,197,3.1,4.9,30,0.00,,---,0.00,VWS V14.01,2013-03-31 04:38:00,
2013-03-30 22:40:00,40.1,11.9,30.06,SSW,196,5.4,6.3,31,0.00,,---,0.00,VWS V14.01,2013-03-31 04:40:00,
2013-03-30 22:41:00,40.1,11.9,30.06,SSW,197,3.6,6.3,31,0.00,,---,0.00,VWS V14.01,2013-03-31 04:41:00,
2013-03-30 22:43:00,40.3,12.1,30.06,SSW,195,4.0,7.2,31,0.00,,---,0.00,VWS V14.01,2013-03-31 04:43:00,
2013-03-30 22:45:00,40.5,12.2,30.06,SSW,196,5.4,5.4,31,0.00,,---,0.00,VWS V14.01,2013-03-31 04:45:00,
2013-03-30 22:46:00,40.5,12.2,30.06,SSW,196,5.4,5.4,31,0.00,,---,0.00,VWS V14.01,2013-03-31 04:46:00,
2013-03-30 22:47:00,40.5,12.2,30.06,South,189,3.6,5.4,31,0.00,,---,0.00,VWS V14.01,2013-03-31 04:47:00,
2013-03-30 22:48:00,40.5,12.2,30.06,South,190,2.7,5.4,31,0.00,,---,0.00,VWS V14.01,2013-03-31 04:48:00,
2013-03-30 22:51:00,40.3,12.1,30.06,SSW,198,2.7,5.4,31,0.00,,---,0.00,VWS V14.01,2013-03-31 04:51:00,
2013-03-30 22:52:00,40.3,12.1,30.06,SSW,193,2.7,5.4,31,0.00,,---,0.00,VWS V14.01,2013-03-31 04:52:00,
2013-03-30 22:53:00,40.3,12.1,30.06,SSW,196,2.7,5.4,31,0.00,,---,0.00,VWS V14.01,2013-03-31 04:53:00,
2013-03-30 22:56:00,40.3,12.1,30.06,SSW,199,3.1,5.8,31,0.00,,---,0.00,VWS V14.01,2013-03-31 04:56:00,
2013-03-30 22:57:00,40.3,12.1,30.06,SSW,198,3.6,5.8,31,0.00,,---,0.00,VWS V14.01,2013-03-31 04:57:00,
2013-03-30 22:59:00,40.3,12.1,30.06,SSW,197,4.0,5.8,31,0.00,,---,0.00,VWS V14.01,2013-03-31 04:59:00,
2013-03-30 23:01:00,40.3,12.1,30.06,SSW,197,4.0,4.9,31,0.00,,---,0.00,VWS V14.01,2013-03-31 05:01:00,
2013-03-30 23:03:00,40.3,12.1,30.06,SSW,196,3.6,5.4,31,0.00,,---,0.00,VWS V14.01,2013-03-31 05:03:00,
2013-03-30 23:04:00,40.3,12.1,30.06,SSW,195,4.9,5.4,31,0.00,,---,0.00,VWS V14.01,2013-03-31 05:04:00,
2013-03-30 23:06:00,40.3,12.1,30.06,SSW,195,2.2,5.4,31,0.00,,---,0.00,VWS V14.01,2013-03-31 05:06:00,
2013-03-30 23:08:00,40.3,12.1,30.06,SSW,195,2.2,5.4,31,0.00,,---,0.00,VWS V14.01,2013-03-31 05:08:00,
2013-03-30 23:09:00,40.3,12.1,30.06,SSW,195,0.0,5.4,31,0.00,,---,0.00,VWS V14.01,2013-03-31 05:09:00,
2013-03-30 23:11:00,39.9,11.8,30.06,SSW,195,0.0,5.4,31,0.00,,---,0.00,VWS V14.01,2013-03-31 05:11:00,
2013-03-30 23:12:00,39.9,11.8,30.06,SSW,195,0.0,5.4,31,0.00,,---,0.00,VWS V14.01,2013-03-31 05:12:00,
2013-03-30 23:13:00,39.7,11.6,30.06,SSW,195,0.0,5.4,31,0.00,,---,0.00,VWS V14.01,2013-03-31 05:13:00,
2013-03-30 23:15:00,39.6,11.4,30.06,SSW,195,0.0,0.0,31,0.00,,---,0.00,VWS V14.01,2013-03-31 05:15:00,
2013-03-30 23:16:00,39.4,11.3,30.06,SSW,195,0.0,0.0,31,0.00,,---,0.00,VWS V14.01,2013-03-31 05:16:00,
2013-03-30 23:17:00,39.4,11.3,30.06,SSW,195,0.0,0.0,31,0.00,,---,0.00,VWS V14.01,2013-03-31 05:17:00,
2013-03-30 23:18:00,39.4,11.3,30.06,SSW,195,0.0,0.0,31,0.00,,---,0.00,VWS V14.01,2013-03-31 05:18:00,
2013-03-30 23:20:00,39.6,11.4,30.06,SSW,195,0.0,0.0,31,0.00,,---,0.00,VWS V14.01,2013-03-31 05:20:00,
2013-03-30 23:21:00,39.7,11.6,30.06,SSW,195,0.0,0.0,31,0.00,,---,0.00,VWS V14.01,2013-03-31 05:21:00,
2013-03-30 23:23:00,39.9,11.8,30.06,SSW,195,0.0,0.0,31,0.00,,---,0.00,VWS V14.01,2013-03-31 05:23:00,
2013-03-30 23:25:00,40.3,12.1,30.06,SSW,195,2.2,3.1,31,0.00,,---,0.00,VWS V14.01,2013-03-31 05:25:00,
2013-03-30 23:27:00,40.3,12.1,30.06,SSW,195,2.2,3.1,31,0.00,,---,0.00,VWS V14.01,2013-03-31 05:27:00,
2013-03-30 23:28:00,40.5,12.2,30.06,SSW,195,2.2,3.1,31,0.00,,---,0.00,VWS V14.01,2013-03-31 05:28:00,
2013-03-30 23:29:00,40.5,12.2,30.06,SSW,195,0.0,3.1,31,0.00,,---,0.00,VWS V14.01,2013-03-31 05:29:00,
2013-03-30 23:30:00,40.8,12.5,30.06,SSW,195,0.0,2.7,31,0.00,,---,0.00,VWS V14.01,2013-03-31 05:30:00,
2013-03-30 23:32:00,41.0,12.7,30.06,SSW,195,0.0,2.7,31,0.00,,---,0.00,VWS V14.01,2013-03-31 05:32:00,
2013-03-30 23:33:00,41.2,12.9,30.06,SSW,195,0.0,2.7,31,0.00,,---,0.00,VWS V14.01,2013-03-31 05:33:00,
2013-03-30 23:34:00,41.4,13.0,30.06,SSW,195,0.0,2.7,31,0.00,,---,0.00,VWS V14.01,2013-03-31 05:34:00,
2013-03-30 23:36:00,41.5,12.4,30.06,SSW,195,0.0,2.7,30,0.00,,---,0.00,VWS V14.01,2013-03-31 05:36:00,
2013-03-30 23:38:00,41.7,12.6,30.06,South,189,2.7,2.7,30,0.00,,---,0.00,VWS V14.01,2013-03-31 05:38:00,
2013-03-30 23:39:00,41.7,12.6,30.06,South,189,2.2,2.7,30,0.00,,---,0.00,VWS V14.01,2013-03-31 05:39:00,
2013-03-30 23:41:00,41.2,12.1,30.06,South,189,0.0,2.7,30,0.00,,---,0.00,VWS V14.01,2013-03-31 05:41:00,
2013-03-30 23:43:00,41.0,12.0,30.06,South,189,2.2,2.7,30,0.00,,---,0.00,VWS V14.01,2013-03-31 05:43:00,
2013-03-30 23:44:00,40.6,12.4,30.06,South,189,2.2,2.7,31,0.00,,---,0.00,VWS V14.01,2013-03-31 05:44:00,
2013-03-30 23:47:00,40.1,11.9,30.06,South,189,2.2,3.1,31,0.00,,---,0.00,VWS V14.01,2013-03-31 05:47:00,
2013-03-30 23:48:00,40.1,11.9,30.06,South,189,2.7,3.1,31,0.00,,---,0.00,VWS V14.01,2013-03-31 05:48:00,
2013-03-30 23:49:00,40.1,11.9,30.06,South,189,2.7,3.1,31,0.00,,---,0.00,VWS V14.01,2013-03-31 05:49:00,
2013-03-30 23:52:00,40.5,12.2,30.06,SSW,192,0.0,3.6,31,0.00,,---,0.00,VWS V14.01,2013-03-31 05:52:00,
2013-03-30 23:53:00,40.5,12.2,30.06,SSW,192,0.0,3.6,31,0.00,,---,0.00,VWS V14.01,2013-03-31 05:53:00,
2013-03-30 23:54:00,40.5,12.2,30.06,South,191,2.7,3.6,31,0.00,,---,0.00,VWS V14.01,2013-03-31 05:54:00,
2013-03-30 23:57:00,40.6,12.4,30.06,SSW,196,2.2,3.6,31,0.00,,---,0.00,VWS V14.01,2013-03-31 05:57:00,
2013-03-30 23:58:00,40.6,12.4,30.06,SSW,196,2.7,3.6,31,0.00,,---,0.00,VWS V14.01,2013-03-31 05:58:00,
2013-03-30 23:59:00,40.8,12.5,30.06,South,186,2.7,3.6,31,0.00,,---,0.00,VWS V14.01,2013-03-31 05:59:00,